DLH456 EDDF-KLAX

Flight info

Callsign DLH456
Flight time 10h 45m
Altitude 34000
Route MARUN2D/07C MARUN Y152 ARPEG/N0471F340 Z850 ABILU DCT ATPAQ DCT OMIMA DCT ATNAK DCT GUNPA/M083F360 DCT 65N010W 68N020W 6930N03000W 70N040W 70N060W/M083F380 DCT ADSAM/N0481F380 DCT 69N070W 67N080W 6330N09000W DCT YEK DCT 56N100W DCT DURUR/N0477F400 DCT KATEN DCT GGW DCT BIL DCT KU84Q DCT TCH DCT WINEN/N0480F410 Q73 EEVUN/N0475F400 Q73 HAKMN ANJLL4
Aircraft B748/H-SDE3FGHIM1M2RWXY/LB1

Departure

Time 2026-04-13 11:37
Airport Frankfurt Main Airport (EDDF)

Arrival

Time 2026-04-13 22:23
Airport Los Angeles International Airport (KLAX)
Time Latitude Longitude Altitude Speed Heading
2026-04-13 10:45 50.04591 8.57046 355 ft 0 kts 61°
2026-04-13 11:25 50.04590 8.57043 355 ft 2 kts 61°
2026-04-13 11:25 50.04577 8.57008 363 ft 4 kts 61°
2026-04-13 11:26 50.04564 8.56972 365 ft 4 kts 61°
2026-04-13 11:26 50.04553 8.56941 365 ft 4 kts 67°
2026-04-13 11:26 50.04552 8.56915 365 ft 4 kts 150°
2026-04-13 11:26 50.04577 8.56903 363 ft 4 kts 178°
2026-04-13 11:27 50.04592 8.56905 362 ft 2 kts 192°
2026-04-13 11:31 50.04586 8.56902 364 ft 3 kts 192°
2026-04-13 11:31 50.04557 8.56893 362 ft 6 kts 192°
2026-04-13 11:31 50.04506 8.56874 358 ft 10 kts 193°
2026-04-13 11:31 50.04428 8.56849 363 ft 13 kts 190°
2026-04-13 11:32 50.04343 8.56828 361 ft 12 kts 191°
2026-04-13 11:32 50.04255 8.56781 360 ft 13 kts 225°
2026-04-13 11:32 50.04215 8.56641 362 ft 15 kts 249°
2026-04-13 11:32 50.04174 8.56466 361 ft 19 kts 251°
2026-04-13 11:33 50.04125 8.56264 360 ft 21 kts 248°
2026-04-13 11:33 50.04071 8.56043 360 ft 23 kts 250°
2026-04-13 11:33 50.03949 8.55536 357 ft 27 kts 250°
2026-04-13 11:34 50.03882 8.55251 359 ft 29 kts 251°
2026-04-13 11:34 50.03809 8.54948 359 ft 31 kts 249°
2026-04-13 11:34 50.03733 8.54624 362 ft 32 kts 249°
2026-04-13 11:34 50.03672 8.54370 361 ft 12 kts 250°
2026-04-13 11:35 50.03638 8.54308 361 ft 6 kts 201°
2026-04-13 11:35 50.03611 8.54309 358 ft 2 kts 162°
2026-04-13 11:35 50.03584 8.54324 363 ft 7 kts 161°
2026-04-13 11:35 50.03525 8.54358 363 ft 11 kts 156°
2026-04-13 11:36 50.03493 8.54404 364 ft 3 kts 102°
2026-04-13 11:36 50.03495 8.54429 361 ft 2 kts 80°
2026-04-13 11:36 50.03504 8.54476 359 ft 6 kts 70°
2026-04-13 11:36 50.03520 8.54544 359 ft 11 kts 70°
2026-04-13 11:37 50.03627 8.54988 363 ft 78 kts 70°
2026-04-13 11:37 50.03886 8.56075 362 ft 134 kts 70°
2026-04-13 11:37 50.04269 8.57652 419 ft 171 kts 66°
2026-04-13 11:37 50.04686 8.59363 1117 ft 170 kts 69°
2026-04-13 11:38 50.05092 8.61132 1835 ft 174 kts 71°
2026-04-13 11:38 50.05491 8.62946 2355 ft 184 kts 72°
2026-04-13 11:38 50.05903 8.64831 2859 ft 189 kts 72°
2026-04-13 11:38 50.06346 8.66871 3176 ft 205 kts 73°
2026-04-13 11:39 50.06811 8.69039 3574 ft 219 kts 72°
2026-04-13 11:39 50.07550 8.71134 4200 ft 227 kts 51°
2026-04-13 11:39 50.08858 8.72650 4783 ft 238 kts 25°
2026-04-13 11:39 50.10475 8.73510 5148 ft 258 kts 20°
2026-04-13 11:40 50.12212 8.74425 5822 ft 267 kts 21°
2026-04-13 11:40 50.14032 8.75460 6252 ft 288 kts 24°
2026-04-13 11:40 50.15879 8.76730 7045 ft 288 kts 28°
2026-04-13 11:40 50.17723 8.78125 7645 ft 296 kts 27°
2026-04-13 11:41 50.19619 8.79471 8402 ft 300 kts 25°
2026-04-13 11:41 50.21537 8.80733 9120 ft 304 kts 24°
2026-04-13 11:41 50.23494 8.82034 9809 ft 308 kts 25°
2026-04-13 11:41 50.25478 8.83392 10401 ft 315 kts 25°
2026-04-13 11:42 50.27575 8.84560 10840 ft 328 kts
2026-04-13 11:42 50.29907 8.84575 11219 ft 342 kts 353°
2026-04-13 11:42 50.32305 8.83988 11627 ft 355 kts 348°
2026-04-13 11:42 50.34738 8.83295 12196 ft 363 kts 351°
2026-04-13 11:43 50.37269 8.82760 12886 ft 369 kts 353°
2026-04-13 11:43 50.39342 8.82386 13465 ft 373 kts 353°
2026-04-13 11:43 50.41383 8.81983 13984 ft 377 kts 352°
2026-04-13 11:43 50.43995 8.81401 14631 ft 380 kts 351°
2026-04-13 11:44 50.46628 8.80814 15288 ft 384 kts 352°
2026-04-13 11:44 50.49260 8.80261 15941 ft 387 kts 352°
2026-04-13 11:44 50.51940 8.79702 16617 ft 390 kts 352°
2026-04-13 11:44 50.54649 8.79121 17280 ft 393 kts 352°
2026-04-13 11:45 50.57378 8.78466 17952 ft 397 kts 346°
2026-04-13 11:45 50.60052 8.77324 18569 ft 400 kts 343°
2026-04-13 11:45 50.62701 8.76077 19114 ft 404 kts 342°
2026-04-13 11:45 50.65406 8.74807 19660 ft 408 kts 343°
2026-04-13 11:46 50.68161 8.73567 20222 ft 412 kts 343°
2026-04-13 11:46 50.70941 8.72321 20797 ft 416 kts 343°
2026-04-13 11:46 50.73709 8.71053 21341 ft 421 kts 342°
2026-04-13 11:46 50.76538 8.69747 21871 ft 425 kts 342°
2026-04-13 11:47 50.79386 8.68409 22399 ft 428 kts 338°
2026-04-13 11:47 50.82053 8.66312 22903 ft 428 kts 322°
2026-04-13 11:47 50.84254 8.63255 23415 ft 426 kts 308°
2026-04-13 11:47 50.86194 8.59674 23851 ft 429 kts 307°
2026-04-13 11:48 50.88111 8.56031 24246 ft 432 kts 306°
2026-04-13 11:48 50.90060 8.52365 24644 ft 435 kts 307°
2026-04-13 11:48 50.92014 8.48744 25051 ft 438 kts 307°
2026-04-13 11:48 50.94008 8.45031 25433 ft 441 kts 306°
2026-04-13 11:49 50.95991 8.41297 25811 ft 444 kts 306°
2026-04-13 11:49 50.98003 8.37507 26203 ft 447 kts 306°
2026-04-13 11:49 50.99999 8.33765 26579 ft 450 kts 308°
2026-04-13 11:49 51.02304 8.30331 26979 ft 458 kts 320°
2026-04-13 11:50 51.05029 8.27619 27368 ft 463 kts 327°
2026-04-13 11:50 51.07820 8.25130 27731 ft 466 kts 328°
2026-04-13 11:50 51.10681 8.22610 28110 ft 469 kts 328°
2026-04-13 11:50 51.13542 8.20069 28483 ft 471 kts 327°
2026-04-13 11:51 51.16414 8.17495 28847 ft 474 kts 327°
2026-04-13 11:51 51.19268 8.14940 29205 ft 476 kts 327°
2026-04-13 11:51 51.22171 8.12350 29573 ft 479 kts 327°
2026-04-13 11:51 51.25104 8.09729 29963 ft 482 kts 327°
2026-04-13 11:52 51.28036 8.07095 30269 ft 484 kts 327°
2026-04-13 11:52 51.30986 8.04441 30578 ft 487 kts 326°
2026-04-13 11:52 51.33911 8.01811 30880 ft 490 kts 326°
2026-04-13 11:52 51.36910 7.99111 31170 ft 492 kts 326°
2026-04-13 11:53 51.39980 7.96641 31485 ft 498 kts 336°
2026-04-13 11:53 51.44565 7.94800 31850 ft 507 kts 351°
2026-04-13 11:53 51.48079 7.94162 32113 ft 510 kts 351°
2026-04-13 11:54 51.51628 7.93574 32354 ft 512 kts 351°
2026-04-13 11:54 51.55176 7.92982 32613 ft 514 kts 351°
2026-04-13 11:54 51.58741 7.92349 32828 ft 516 kts 351°
2026-04-13 11:54 51.62269 7.91718 33038 ft 518 kts 351°
2026-04-13 11:55 51.65872 7.91095 33257 ft 520 kts 351°
2026-04-13 11:55 51.69384 7.90493 33459 ft 522 kts 351°
2026-04-13 11:55 51.73011 7.89858 33680 ft 524 kts 351°
2026-04-13 11:55 51.76605 7.89221 33886 ft 526 kts 351°
2026-04-13 11:56 51.80261 7.88579 33980 ft 529 kts 351°
2026-04-13 11:56 51.87573 7.87301 33982 ft 525 kts 351°
2026-04-13 11:57 51.94818 7.86016 33980 ft 526 kts 351°
2026-04-13 11:57 52.02121 7.84728 34010 ft 527 kts 350°
2026-04-13 11:58 52.09413 7.83429 34002 ft 529 kts 350°
2026-04-13 11:58 52.16723 7.82129 34004 ft 529 kts 350°
2026-04-13 11:59 52.24043 7.80819 34004 ft 529 kts 350°
2026-04-13 11:59 52.31381 7.79503 33999 ft 529 kts 350°
2026-04-13 12:00 52.38674 7.78190 33997 ft 529 kts 350°
2026-04-13 12:00 52.45973 7.76872 34000 ft 529 kts 350°
2026-04-13 12:01 52.53269 7.75527 34002 ft 527 kts 346°
2026-04-13 12:01 52.60359 7.72660 34009 ft 522 kts 340°
2026-04-13 12:02 52.67277 7.69601 34011 ft 523 kts 340°
2026-04-13 12:02 52.74266 7.66553 34012 ft 523 kts 340°
2026-04-13 12:03 52.81323 7.63430 34015 ft 521 kts 340°
2026-04-13 12:03 52.88293 7.60355 34014 ft 521 kts 340°
2026-04-13 12:04 52.95338 7.57224 34014 ft 523 kts 339°
2026-04-13 12:04 53.02367 7.54099 34032 ft 523 kts 339°
2026-04-13 12:05 53.09361 7.50973 34021 ft 522 kts 339°
2026-04-13 12:05 53.16402 7.47817 34038 ft 522 kts 339°
2026-04-13 12:06 53.23392 7.44674 34047 ft 523 kts 339°
2026-04-13 12:06 53.30414 7.41505 34052 ft 523 kts 339°
2026-04-13 12:07 53.37430 7.38328 34054 ft 522 kts 339°
2026-04-13 12:07 53.44457 7.35135 34034 ft 522 kts 339°
2026-04-13 12:08 53.51474 7.31936 34042 ft 522 kts 339°
2026-04-13 12:08 53.58458 7.28742 34040 ft 522 kts 339°
2026-04-13 12:09 53.65507 7.25504 34040 ft 525 kts 338°
2026-04-13 12:09 53.72569 7.22253 34037 ft 525 kts 338°
2026-04-13 12:10 53.79496 7.19050 34046 ft 526 kts 338°
2026-04-13 12:10 53.86529 7.15789 34041 ft 525 kts 338°
2026-04-13 12:11 53.93578 7.12508 34043 ft 524 kts 338°
2026-04-13 12:11 54.00638 7.09209 34043 ft 525 kts 338°
2026-04-13 12:12 54.07665 7.05916 34048 ft 528 kts 338°
2026-04-13 12:12 54.14723 7.02596 34051 ft 527 kts 338°
2026-04-13 12:13 54.20610 6.99818 34051 ft 527 kts 338°
2026-04-13 12:13 54.27680 6.96471 34055 ft 527 kts 338°
2026-04-13 12:14 54.34773 6.93100 34090 ft 530 kts 337°
2026-04-13 12:14 54.41872 6.89715 34053 ft 532 kts 337°
2026-04-13 12:15 54.48998 6.86305 34050 ft 533 kts 337°
2026-04-13 12:15 54.56162 6.82863 34074 ft 533 kts 337°
2026-04-13 12:16 54.63279 6.79434 34057 ft 532 kts 336°
2026-04-13 12:16 54.70432 6.75971 34062 ft 532 kts 336°
2026-04-13 12:17 54.77541 6.72521 34064 ft 531 kts 336°
2026-04-13 12:17 54.84663 6.69049 34050 ft 531 kts 336°
2026-04-13 12:18 54.91751 6.65582 34058 ft 531 kts 336°
2026-04-13 12:18 54.98845 6.62092 34063 ft 531 kts 334°
2026-04-13 12:19 55.05603 6.57264 34127 ft 521 kts 327°
2026-04-13 12:19 55.12235 6.52154 34062 ft 521 kts 326°
2026-04-13 12:20 55.18836 6.47092 34062 ft 521 kts 326°
2026-04-13 12:20 55.25488 6.41941 34064 ft 521 kts 326°
2026-04-13 12:21 55.32112 6.36814 34063 ft 521 kts 326°
2026-04-13 12:21 55.38749 6.31643 34055 ft 523 kts 326°
2026-04-13 12:22 55.45362 6.26485 34059 ft 522 kts 326°
2026-04-13 12:22 55.52025 6.21258 34058 ft 522 kts 326°
2026-04-13 12:23 55.58642 6.16054 34058 ft 523 kts 326°
2026-04-13 12:23 55.65344 6.10751 34070 ft 532 kts 327°
2026-04-13 12:24 55.72085 6.05422 34068 ft 532 kts 327°
2026-04-13 12:24 55.78830 6.00047 34073 ft 532 kts 326°
2026-04-13 12:25 55.85595 5.94648 34073 ft 532 kts 326°
2026-04-13 12:25 55.92272 5.89293 34072 ft 532 kts 326°
2026-04-13 12:26 55.99000 5.83878 34068 ft 532 kts 326°
2026-04-13 12:26 56.05762 5.78414 34069 ft 532 kts 326°
2026-04-13 12:27 56.12485 5.72962 34071 ft 532 kts 326°
2026-04-13 12:27 56.22592 5.64723 34061 ft 532 kts 328°
2026-04-13 12:28 56.29329 5.59207 34063 ft 532 kts 328°
2026-04-13 12:28 56.35958 5.53755 34064 ft 532 kts 328°
2026-04-13 12:29 56.42707 5.48188 34063 ft 531 kts 328°
2026-04-13 12:29 56.49416 5.42628 34066 ft 529 kts 328°
2026-04-13 12:30 56.56066 5.37096 34064 ft 529 kts 328°
2026-04-13 12:30 56.62772 5.31497 34064 ft 529 kts 328°
2026-04-13 12:31 56.69439 5.25908 34064 ft 529 kts 328°
2026-04-13 12:31 56.76133 5.20273 34070 ft 528 kts 328°
2026-04-13 12:32 56.82762 5.14673 34062 ft 527 kts 328°
2026-04-13 12:32 56.89437 5.09009 34070 ft 528 kts 328°
2026-04-13 12:33 56.96109 5.03329 34069 ft 528 kts 328°
2026-04-13 12:33 57.02503 4.97293 34074 ft 521 kts 322°
2026-04-13 12:34 57.08689 4.90519 34068 ft 518 kts 321°
2026-04-13 12:34 57.14896 4.83722 34072 ft 518 kts 321°
2026-04-13 12:35 57.21098 4.76894 34073 ft 518 kts 321°
2026-04-13 12:35 57.27234 4.70119 34057 ft 515 kts 322°
2026-04-13 12:36 57.33392 4.63283 34063 ft 514 kts 322°
2026-04-13 12:36 57.39521 4.56460 34063 ft 514 kts 322°
2026-04-13 12:37 57.45663 4.49592 34062 ft 515 kts 322°
2026-04-13 12:37 57.51769 4.42738 34064 ft 515 kts 322°
2026-04-13 12:38 57.57926 4.35800 34081 ft 515 kts 322°
2026-04-13 12:38 57.64023 4.28903 34059 ft 513 kts 322°
2026-04-13 12:39 57.70100 4.21995 34086 ft 513 kts 322°
2026-04-13 12:39 57.76219 4.15021 34062 ft 512 kts 322°
2026-04-13 12:40 57.82272 4.08087 34052 ft 512 kts 322°
2026-04-13 12:40 57.88366 4.01081 34050 ft 513 kts 323°
2026-04-13 12:41 57.94408 3.94109 34047 ft 512 kts 322°
2026-04-13 12:41 58.00503 3.87044 34040 ft 513 kts 322°
2026-04-13 12:42 58.06553 3.80005 34043 ft 513 kts 322°
2026-04-13 12:42 58.12641 3.72891 34045 ft 513 kts 322°
2026-04-13 12:43 58.18689 3.65794 34043 ft 514 kts 323°
2026-04-13 12:43 58.24735 3.58680 34043 ft 511 kts 323°
2026-04-13 12:44 58.30805 3.51495 34044 ft 512 kts 323°
2026-04-13 12:44 58.36829 3.44346 34040 ft 513 kts 323°
2026-04-13 12:45 58.42894 3.37113 34037 ft 512 kts 323°
2026-04-13 12:45 58.48906 3.29914 34039 ft 512 kts 323°
2026-04-13 12:46 58.54963 3.22634 34027 ft 511 kts 323°
2026-04-13 12:46 58.60952 3.15403 34028 ft 512 kts 323°
2026-04-13 12:47 58.66997 3.08075 34032 ft 512 kts 323°
2026-04-13 12:47 58.73000 3.00770 34019 ft 512 kts 323°
2026-04-13 12:48 58.79026 2.93405 34020 ft 512 kts 323°
2026-04-13 12:48 58.85005 2.86067 34021 ft 512 kts 323°
2026-04-13 12:49 58.91022 2.78651 34007 ft 512 kts 323°
2026-04-13 12:49 58.97045 2.71197 34009 ft 513 kts 323°
2026-04-13 12:50 59.03031 2.63756 34008 ft 513 kts 323°
2026-04-13 12:50 59.09023 2.56279 34007 ft 513 kts 323°
2026-04-13 12:51 59.15037 2.48742 33988 ft 512 kts 323°
2026-04-13 12:51 59.20987 2.41253 33986 ft 511 kts 323°
2026-04-13 12:52 59.26963 2.33699 33988 ft 511 kts 323°
2026-04-13 12:52 59.32935 2.26120 34001 ft 510 kts 323°
2026-04-13 12:53 59.38876 2.18546 33998 ft 510 kts 323°
2026-04-13 12:53 59.44816 2.10943 34001 ft 511 kts 323°
2026-04-13 12:54 59.50790 2.03261 33997 ft 512 kts 323°
2026-04-13 12:54 59.56717 1.95609 33998 ft 511 kts 322°
2026-04-13 12:55 59.62677 1.87880 33993 ft 510 kts 323°
2026-04-13 12:55 59.68572 1.80204 33989 ft 510 kts 323°
2026-04-13 12:56 59.74504 1.72446 33980 ft 509 kts 323°
2026-04-13 12:56 59.80429 1.64662 33983 ft 510 kts 323°
2026-04-13 12:57 59.86326 1.56883 33977 ft 511 kts 323°
2026-04-13 12:57 59.92273 1.49003 33984 ft 512 kts 322°
2026-04-13 12:58 59.98159 1.41171 33976 ft 511 kts 322°
2026-04-13 12:58 60.04091 1.33242 33974 ft 511 kts 322°
2026-04-13 12:59 60.09993 1.25320 33955 ft 509 kts 323°
2026-04-13 12:59 60.15857 1.17412 33954 ft 510 kts 322°
2026-04-13 13:00 60.21737 1.09448 33963 ft 512 kts 322°
2026-04-13 13:00 60.27655 1.01400 33953 ft 512 kts 322°
2026-04-13 13:01 60.33528 0.93375 33950 ft 511 kts 322°
2026-04-13 13:01 60.39424 0.85284 33948 ft 510 kts 322°
2026-04-13 13:02 60.45261 0.77238 33934 ft 510 kts 322°
2026-04-13 13:02 60.51155 0.69075 33938 ft 512 kts 322°
2026-04-13 13:03 60.57003 0.60944 33934 ft 510 kts 322°
2026-04-13 13:03 60.62856 0.52766 33922 ft 510 kts 322°
2026-04-13 13:04 60.68689 0.44581 33919 ft 510 kts 322°
2026-04-13 13:04 60.74539 0.36334 33919 ft 510 kts 322°
2026-04-13 13:05 60.80359 0.28093 33923 ft 511 kts 322°
2026-04-13 13:05 60.86183 0.19810 33916 ft 511 kts 322°
2026-04-13 13:06 60.91048 0.12860 33914 ft 511 kts 322°
2026-04-13 13:06 60.97858 0.03090 33914 ft 511 kts 322°
2026-04-13 13:07 61.02365 -0.04704 33890 ft 506 kts 312°
2026-04-13 13:07 61.07360 -0.14850 33894 ft 507 kts 312°
2026-04-13 13:08 61.12431 -0.25092 33894 ft 507 kts 312°
2026-04-13 13:08 61.17424 -0.35278 33896 ft 507 kts 312°
2026-04-13 13:09 61.22458 -0.45570 33892 ft 507 kts 312°
2026-04-13 13:09 61.27457 -0.55849 33881 ft 507 kts 312°
2026-04-13 13:10 61.32469 -0.66202 33880 ft 506 kts 312°
2026-04-13 13:10 61.37476 -0.76597 33882 ft 508 kts 311°
2026-04-13 13:11 61.42462 -0.86993 33867 ft 508 kts 311°
2026-04-13 13:11 61.47454 -0.97455 33867 ft 508 kts 311°
2026-04-13 13:12 61.52417 -1.07907 34174 ft 511 kts 311°
2026-04-13 13:12 61.55871 -1.15207 34504 ft 515 kts 311°
2026-04-13 13:13 61.58403 -1.20577 34759 ft 517 kts 311°
2026-04-13 13:13 61.60907 -1.25899 35124 ft 517 kts 311°
2026-04-13 13:13 61.63442 -1.31299 35475 ft 517 kts 311°
2026-04-13 13:13 61.65973 -1.36706 35785 ft 518 kts 311°
2026-04-13 13:14 61.71026 -1.47539 35825 ft 518 kts 311°
2026-04-13 13:14 61.76052 -1.58372 35818 ft 516 kts 311°
2026-04-13 13:15 61.81039 -1.69169 35823 ft 517 kts 311°
2026-04-13 13:15 61.86073 -1.80127 35810 ft 516 kts 311°
2026-04-13 13:16 61.91071 -1.91057 35818 ft 519 kts 311°
2026-04-13 13:16 61.96091 -2.02092 35802 ft 519 kts 311°
2026-04-13 13:17 62.01064 -2.13080 35799 ft 519 kts 311°
2026-04-13 13:17 62.06047 -2.24145 35783 ft 514 kts 311°
2026-04-13 13:18 62.11023 -2.35250 35778 ft 515 kts 311°
2026-04-13 13:18 62.15966 -2.46340 35779 ft 516 kts 311°
2026-04-13 13:19 62.20927 -2.57518 35769 ft 518 kts 310°
2026-04-13 13:19 62.25888 -2.68765 35770 ft 520 kts 310°
2026-04-13 13:20 62.30820 -2.79992 35762 ft 516 kts 311°
2026-04-13 13:20 62.35733 -2.91242 35758 ft 517 kts 310°
2026-04-13 13:21 62.40651 -3.02562 35741 ft 515 kts 311°
2026-04-13 13:21 62.45542 -3.13870 35741 ft 518 kts 310°
2026-04-13 13:22 62.50419 -3.25211 35722 ft 517 kts 310°
2026-04-13 13:22 62.55328 -3.36685 35724 ft 516 kts 310°
2026-04-13 13:23 62.60220 -3.48180 35723 ft 517 kts 310°
2026-04-13 13:23 62.65090 -3.59673 35704 ft 518 kts 310°
2026-04-13 13:24 62.69922 -3.71150 35728 ft 515 kts 310°
2026-04-13 13:24 62.74772 -3.82720 35696 ft 517 kts 310°
2026-04-13 13:25 62.79596 -3.94295 35689 ft 518 kts 310°
2026-04-13 13:26 62.86851 -4.11811 35678 ft 519 kts 310°
2026-04-13 13:26 62.91698 -4.23593 35669 ft 519 kts 310°
2026-04-13 13:27 62.96499 -4.35321 35660 ft 518 kts 309°
2026-04-13 13:27 63.01309 -4.47144 35659 ft 516 kts 309°
2026-04-13 13:28 63.06078 -4.58923 35631 ft 514 kts 310°
2026-04-13 13:28 63.10842 -4.70751 35630 ft 519 kts 309°
2026-04-13 13:29 63.15622 -4.82684 35630 ft 518 kts 309°
2026-04-13 13:29 63.20385 -4.94642 35625 ft 520 kts 309°
2026-04-13 13:30 63.25168 -5.06711 35626 ft 518 kts 309°
2026-04-13 13:30 63.29887 -5.18687 35602 ft 517 kts 309°
2026-04-13 13:31 63.34618 -5.30756 35610 ft 517 kts 309°
2026-04-13 13:31 63.39346 -5.42883 35587 ft 514 kts 309°
2026-04-13 13:32 63.44028 -5.54960 35582 ft 515 kts 309°
2026-04-13 13:32 63.48708 -5.67094 35583 ft 515 kts 309°
2026-04-13 13:33 63.53390 -5.79305 35571 ft 516 kts 309°
2026-04-13 13:33 63.58025 -5.91455 35561 ft 516 kts 308°
2026-04-13 13:34 63.62683 -6.03737 35551 ft 515 kts 309°
2026-04-13 13:34 63.67323 -6.16035 35552 ft 517 kts 309°
2026-04-13 13:35 63.71968 -6.28417 35551 ft 514 kts 308°
2026-04-13 13:35 63.76548 -6.40694 35537 ft 513 kts 308°
2026-04-13 13:36 63.81153 -6.53106 35539 ft 514 kts 308°
2026-04-13 13:36 63.85756 -6.65584 35525 ft 514 kts 308°
2026-04-13 13:37 63.90317 -6.78017 35523 ft 515 kts 308°
2026-04-13 13:37 63.94875 -6.90508 35516 ft 515 kts 308°
2026-04-13 13:38 63.99444 -7.03104 35518 ft 515 kts 308°
2026-04-13 13:38 64.03971 -7.15652 35509 ft 513 kts 308°
2026-04-13 13:39 64.08507 -7.28301 35496 ft 513 kts 308°
2026-04-13 13:39 64.13006 -7.40914 35497 ft 514 kts 308°
2026-04-13 13:40 64.17520 -7.53641 35489 ft 515 kts 308°
2026-04-13 13:40 64.22015 -7.66388 35496 ft 515 kts 308°
2026-04-13 13:41 64.26499 -7.79177 35494 ft 514 kts 307°
2026-04-13 13:41 64.30983 -7.92039 35481 ft 513 kts 307°
2026-04-13 13:42 64.35420 -8.04844 35503 ft 512 kts 307°
2026-04-13 13:42 64.39869 -8.17749 35494 ft 512 kts 307°
2026-04-13 13:43 64.44300 -8.30683 35496 ft 512 kts 307°
2026-04-13 13:43 64.48693 -8.43579 35496 ft 512 kts 307°
2026-04-13 13:44 64.53087 -8.56553 35496 ft 513 kts 307°
2026-04-13 13:44 64.57480 -8.69602 35495 ft 513 kts 307°
2026-04-13 13:45 64.61887 -8.82765 35497 ft 512 kts 307°
2026-04-13 13:45 64.66247 -8.95870 35495 ft 511 kts 306°
2026-04-13 13:46 64.70583 -9.08975 35493 ft 512 kts 306°
2026-04-13 13:46 64.74954 -9.22266 35500 ft 514 kts 306°
2026-04-13 13:47 64.79293 -9.35539 35507 ft 514 kts 306°
2026-04-13 13:47 64.83606 -9.48811 35511 ft 514 kts 306°
2026-04-13 13:48 64.87946 -9.62246 35515 ft 514 kts 306°
2026-04-13 13:48 64.92246 -9.75635 35510 ft 514 kts 306°
2026-04-13 13:49 64.96533 -9.89067 35515 ft 514 kts 306°
2026-04-13 13:49 65.00902 -10.02449 35520 ft 513 kts 310°
2026-04-13 13:50 65.05623 -10.15078 35512 ft 514 kts 310°
2026-04-13 13:50 65.10322 -10.27805 35516 ft 514 kts 310°
2026-04-13 13:51 65.15041 -10.40634 35522 ft 514 kts 310°
2026-04-13 13:51 65.19728 -10.53452 35523 ft 514 kts 310°
2026-04-13 13:52 65.24415 -10.66354 35521 ft 515 kts 310°
2026-04-13 13:52 65.29100 -10.79317 35524 ft 516 kts 309°
2026-04-13 13:53 65.33769 -10.92321 35525 ft 516 kts 309°
2026-04-13 13:53 65.38408 -11.05313 35523 ft 514 kts 309°
2026-04-13 13:54 65.43061 -11.18426 35525 ft 514 kts 309°
2026-04-13 13:54 65.47671 -11.31493 35527 ft 514 kts 309°
2026-04-13 13:55 65.52292 -11.44673 35524 ft 516 kts 309°
2026-04-13 13:55 65.56891 -11.57865 35527 ft 516 kts 309°
2026-04-13 13:56 65.61513 -11.71206 35527 ft 516 kts 309°
2026-04-13 13:56 65.66090 -11.84498 35527 ft 516 kts 309°
2026-04-13 13:57 65.70680 -11.97909 35532 ft 515 kts 309°
2026-04-13 13:57 65.75226 -12.11270 35533 ft 514 kts 308°
2026-04-13 13:58 65.79773 -12.24718 35542 ft 517 kts 308°
2026-04-13 13:58 65.84346 -12.38325 35544 ft 517 kts 308°
2026-04-13 13:59 65.88894 -12.51944 35550 ft 517 kts 308°
2026-04-13 13:59 65.93417 -12.65572 35552 ft 517 kts 308°
2026-04-13 14:00 65.97955 -12.79329 35556 ft 518 kts 308°
2026-04-13 14:00 66.02453 -12.93054 35560 ft 518 kts 308°
2026-04-13 14:01 66.06964 -13.06901 35552 ft 517 kts 308°
2026-04-13 14:01 66.11424 -13.20679 35546 ft 515 kts 308°
2026-04-13 14:02 66.15892 -13.34572 35544 ft 515 kts 308°
2026-04-13 14:02 66.20317 -13.48414 35548 ft 515 kts 307°
2026-04-13 14:03 66.24750 -13.62369 35553 ft 515 kts 307°
2026-04-13 14:03 66.28439 -13.74052 35555 ft 515 kts 307°
2026-04-13 14:04 66.32849 -13.88098 35560 ft 518 kts 307°
2026-04-13 14:04 66.37275 -14.02285 35562 ft 517 kts 307°
2026-04-13 14:05 66.41685 -14.16517 35574 ft 518 kts 307°
2026-04-13 14:05 66.46037 -14.30646 35564 ft 514 kts 307°
2026-04-13 14:06 66.50399 -14.44904 35566 ft 515 kts 307°
2026-04-13 14:06 66.54726 -14.59138 35556 ft 515 kts 307°
2026-04-13 14:07 66.59090 -14.73587 35569 ft 517 kts 307°
2026-04-13 14:07 66.63406 -14.87972 35575 ft 517 kts 306°
2026-04-13 14:08 66.67737 -15.02500 35573 ft 517 kts 306°
2026-04-13 14:08 66.72031 -15.17000 35580 ft 517 kts 306°
2026-04-13 14:09 66.76331 -15.31620 35598 ft 517 kts 306°
2026-04-13 14:09 66.80588 -15.46187 35577 ft 515 kts 306°
2026-04-13 14:10 66.84867 -15.60925 35576 ft 516 kts 306°
2026-04-13 14:10 66.89102 -15.75613 35575 ft 516 kts 306°
2026-04-13 14:11 66.93339 -15.90403 35581 ft 516 kts 306°
2026-04-13 14:11 66.97553 -16.05217 35581 ft 516 kts 306°
2026-04-13 14:12 67.01743 -16.20043 35584 ft 516 kts 305°
2026-04-13 14:12 67.05947 -16.35018 35584 ft 516 kts 305°
2026-04-13 14:13 67.10111 -16.49954 35590 ft 516 kts 305°
2026-04-13 14:13 67.14286 -16.65031 35602 ft 514 kts 305°
2026-04-13 14:14 67.20463 -16.87530 35600 ft 514 kts 305°
2026-04-13 14:14 67.24580 -17.02655 35599 ft 514 kts 304°
2026-04-13 14:15 67.28652 -17.17717 35603 ft 514 kts 304°
2026-04-13 14:15 67.32753 -17.32993 35606 ft 516 kts 304°
2026-04-13 14:16 67.36812 -17.48215 35607 ft 516 kts 304°
2026-04-13 14:16 67.40895 -17.63638 35615 ft 516 kts 304°
2026-04-13 14:17 67.44928 -17.78977 35610 ft 516 kts 304°
2026-04-13 14:17 67.48976 -17.94484 35618 ft 514 kts 304°
2026-04-13 14:18 67.52992 -18.09977 35608 ft 515 kts 304°
2026-04-13 14:18 67.57001 -18.25550 35620 ft 519 kts 304°
2026-04-13 14:19 67.61002 -18.41205 35626 ft 520 kts 303°
2026-04-13 14:19 67.65014 -18.57016 35628 ft 518 kts 303°
2026-04-13 14:20 67.68964 -18.72695 35634 ft 517 kts 303°
2026-04-13 14:20 67.72941 -18.88599 35638 ft 517 kts 303°
2026-04-13 14:21 67.76891 -19.04507 35649 ft 521 kts 303°
2026-04-13 14:21 67.80890 -19.20733 35662 ft 532 kts 303°
2026-04-13 14:22 67.84900 -19.37126 35656 ft 520 kts 303°
2026-04-13 14:22 67.88764 -19.53040 35652 ft 513 kts 303°
2026-04-13 14:23 67.92654 -19.69174 35652 ft 521 kts 302°
2026-04-13 14:23 67.96528 -19.85367 35669 ft 516 kts 302°
2026-04-13 14:24 68.00327 -20.01657 35673 ft 512 kts 297°
2026-04-13 14:24 68.03597 -20.18835 35700 ft 522 kts 296°
2026-04-13 14:25 68.06890 -20.36264 35696 ft 523 kts 297°
2026-04-13 14:25 68.10138 -20.53550 35688 ft 525 kts 296°
2026-04-13 14:26 68.13376 -20.70999 35728 ft 526 kts 296°
2026-04-13 14:26 68.14991 -20.79709 35723 ft 514 kts 296°
2026-04-13 14:26 68.16571 -20.88301 35715 ft 515 kts 296°
2026-04-13 14:27 68.19730 -21.05598 35725 ft 517 kts 296°
2026-04-13 14:27 68.22942 -21.23297 35757 ft 534 kts 295°
2026-04-13 14:28 68.26174 -21.41300 35765 ft 535 kts 295°
2026-04-13 14:28 68.29411 -21.59465 35786 ft 531 kts 295°
2026-04-13 14:29 68.32554 -21.77277 35774 ft 531 kts 295°
2026-04-13 14:29 68.34133 -21.86282 35781 ft 520 kts 295°
2026-04-13 14:29 68.35671 -21.95089 35768 ft 515 kts 295°
2026-04-13 14:30 68.38719 -22.12663 35791 ft 524 kts 295°
2026-04-13 14:30 68.41816 -22.30681 35813 ft 524 kts 295°
2026-04-13 14:31 68.44831 -22.48380 35825 ft 520 kts 295°
2026-04-13 14:31 68.47848 -22.66241 35825 ft 522 kts 294°
2026-04-13 14:32 68.50845 -22.84149 35834 ft 518 kts 294°
2026-04-13 14:32 68.53832 -23.02155 35836 ft 524 kts 294°
2026-04-13 14:33 68.56817 -23.20326 35837 ft 518 kts 294°
2026-04-13 14:33 68.59730 -23.38210 35858 ft 519 kts 294°
2026-04-13 14:34 68.62670 -23.56437 35845 ft 530 kts 293°
2026-04-13 14:34 68.65650 -23.75079 35859 ft 538 kts 293°
2026-04-13 14:35 68.68598 -23.93702 35857 ft 523 kts 293°
2026-04-13 14:35 68.71440 -24.11830 35847 ft 519 kts 293°
2026-04-13 14:36 68.74313 -24.30322 35895 ft 523 kts 293°
2026-04-13 14:36 68.75704 -24.39345 35868 ft 511 kts 293°
2026-04-13 14:36 68.77092 -24.48386 35866 ft 513 kts 292°
2026-04-13 14:37 68.79860 -24.66547 35864 ft 516 kts 292°
2026-04-13 14:37 68.82636 -24.84938 35884 ft 517 kts 292°
2026-04-13 14:38 68.85379 -25.03286 35883 ft 517 kts 292°
2026-04-13 14:38 68.88098 -25.21648 35879 ft 517 kts 292°
2026-04-13 14:39 68.90811 -25.40153 35903 ft 517 kts 292°
2026-04-13 14:39 68.93502 -25.58689 35902 ft 516 kts 291°
2026-04-13 14:40 68.96177 -25.77299 35917 ft 521 kts 291°
2026-04-13 14:40 68.98834 -25.95977 35962 ft 516 kts 291°
2026-04-13 14:41 69.01443 -26.14488 35970 ft 518 kts 291°
2026-04-13 14:41 69.04079 -26.33396 36002 ft 522 kts 291°
2026-04-13 14:42 69.06688 -26.52304 36023 ft 517 kts 290°
2026-04-13 14:42 69.09274 -26.71231 36079 ft 529 kts 290°
2026-04-13 14:43 69.11874 -26.90470 36078 ft 528 kts 290°
2026-04-13 14:43 69.14402 -27.09368 36062 ft 516 kts 290°
2026-04-13 14:44 69.16893 -27.28201 36123 ft 514 kts 290°
2026-04-13 14:44 69.19372 -27.47132 36125 ft 513 kts 290°
2026-04-13 14:45 69.21836 -27.66158 36112 ft 518 kts 289°
2026-04-13 14:45 69.24266 -27.85121 36095 ft 516 kts 289°
2026-04-13 14:46 69.26698 -28.04301 36101 ft 520 kts 289°
2026-04-13 14:46 69.29091 -28.23398 36100 ft 516 kts 289°
2026-04-13 14:47 69.31493 -28.42761 36119 ft 518 kts 289°
2026-04-13 14:47 69.33824 -28.61778 36112 ft 517 kts 289°
2026-04-13 14:48 69.36160 -28.81044 36120 ft 518 kts 288°
2026-04-13 14:48 69.38454 -29.00181 36122 ft 515 kts 288°
2026-04-13 14:49 69.40758 -29.19615 36140 ft 523 kts 288°
2026-04-13 14:49 69.43022 -29.38941 36111 ft 514 kts 288°
2026-04-13 14:50 69.45275 -29.58408 36121 ft 512 kts 288°
2026-04-13 14:50 69.47484 -29.77701 36156 ft 518 kts 288°
2026-04-13 14:51 69.49689 -29.97194 36158 ft 514 kts 287°
2026-04-13 14:51 69.51362 -30.16922 36152 ft 511 kts 282°
2026-04-13 14:52 69.52890 -30.36647 36192 ft 510 kts 282°
2026-04-13 14:52 69.54429 -30.56383 36198 ft 510 kts 282°
2026-04-13 14:53 69.55932 -30.76305 36198 ft 511 kts 282°
2026-04-13 14:53 69.57426 -30.96210 36206 ft 516 kts 281°
2026-04-13 14:54 69.58900 -31.16302 36194 ft 513 kts 281°
2026-04-13 14:54 69.60344 -31.36266 36203 ft 515 kts 281°
2026-04-13 14:55 69.61774 -31.56428 36202 ft 513 kts 281°
2026-04-13 14:55 69.62942 -31.73125 36180 ft 508 kts 281°
2026-04-13 14:56 69.64544 -31.96441 36173 ft 513 kts 280°
2026-04-13 14:56 69.65672 -32.13239 36189 ft 512 kts 280°
2026-04-13 14:57 69.67225 -32.36647 36171 ft 509 kts 280°
2026-04-13 14:58 69.68962 -32.63536 36173 ft 517 kts 279°
2026-04-13 14:58 69.70240 -32.83720 36182 ft 510 kts 279°
2026-04-13 14:59 69.71489 -33.03881 36170 ft 509 kts 279°
2026-04-13 14:59 69.72707 -33.23935 36175 ft 516 kts 279°
2026-04-13 15:00 69.73915 -33.44172 36177 ft 507 kts 279°
2026-04-13 15:00 69.75081 -33.64218 36176 ft 509 kts 278°
2026-04-13 15:01 69.76237 -33.84352 36181 ft 511 kts 278°
2026-04-13 15:01 69.77372 -34.04681 36193 ft 509 kts 278°
2026-04-13 15:02 69.78485 -34.24967 36190 ft 511 kts 278°
2026-04-13 15:02 69.79573 -34.45306 36183 ft 511 kts 278°
2026-04-13 15:03 69.80634 -34.65551 36187 ft 511 kts 277°
2026-04-13 15:03 69.81678 -34.85963 36191 ft 515 kts 277°
2026-04-13 15:04 69.82701 -35.06445 36173 ft 511 kts 277°
2026-04-13 15:04 69.83691 -35.26768 36164 ft 512 kts 277°
2026-04-13 15:05 69.84660 -35.47157 36163 ft 510 kts 277°
2026-04-13 15:05 69.85602 -35.67463 36170 ft 508 kts 276°
2026-04-13 15:06 69.86523 -35.87846 36172 ft 508 kts 276°
2026-04-13 15:06 69.87414 -36.08108 36174 ft 508 kts 276°
2026-04-13 15:07 69.88289 -36.28553 36164 ft 509 kts 276°
2026-04-13 15:07 69.89138 -36.48966 36165 ft 508 kts 276°
2026-04-13 15:08 69.89960 -36.69287 36157 ft 508 kts 276°
2026-04-13 15:08 69.90765 -36.89806 36148 ft 509 kts 275°
2026-04-13 15:09 69.91542 -37.10201 36146 ft 506 kts 275°
2026-04-13 15:09 69.92293 -37.30566 36137 ft 506 kts 275°
2026-04-13 15:10 69.93019 -37.50869 36132 ft 506 kts 275°
2026-04-13 15:10 69.93720 -37.71166 36133 ft 506 kts 274°
2026-04-13 15:11 69.94404 -37.91638 36124 ft 506 kts 274°
2026-04-13 15:11 69.95062 -38.12060 36123 ft 506 kts 274°
2026-04-13 15:12 69.95696 -38.32449 36116 ft 506 kts 274°
2026-04-13 15:12 69.96306 -38.52909 36122 ft 506 kts 274°
2026-04-13 15:13 69.96891 -38.73237 36117 ft 506 kts 273°
2026-04-13 15:13 69.97457 -38.93782 36121 ft 506 kts 273°
2026-04-13 15:14 69.97996 -39.14190 36127 ft 506 kts 273°
2026-04-13 15:14 69.98512 -39.34648 36125 ft 506 kts 272°
2026-04-13 15:15 69.99007 -39.55145 36116 ft 506 kts 272°
2026-04-13 15:15 69.99474 -39.75624 36125 ft 507 kts 272°
2026-04-13 15:16 69.99921 -39.96048 36115 ft 506 kts 272°
2026-04-13 15:16 70.00914 -40.16560 36114 ft 510 kts 278°
2026-04-13 15:17 70.02072 -40.36981 36142 ft 508 kts 277°
2026-04-13 15:17 70.03149 -40.57356 36132 ft 509 kts 277°
2026-04-13 15:18 70.04237 -40.77763 36132 ft 510 kts 277°
2026-04-13 15:18 70.05277 -40.98147 36135 ft 506 kts 277°
2026-04-13 15:19 70.06310 -41.18518 36146 ft 507 kts 277°
2026-04-13 15:19 70.07312 -41.39038 36155 ft 507 kts 276°
2026-04-13 15:20 70.08289 -41.59426 36153 ft 504 kts 276°
2026-04-13 15:20 70.09250 -41.79918 36145 ft 507 kts 276°
2026-04-13 15:21 70.10178 -42.00318 36149 ft 506 kts 276°
2026-04-13 15:21 70.11091 -42.20874 36145 ft 506 kts 275°
2026-04-13 15:22 70.11670 -42.34271 36146 ft 506 kts 275°
2026-04-13 15:22 70.12182 -42.46243 36161 ft 506 kts 275°
2026-04-13 15:23 70.13032 -42.66616 36148 ft 505 kts 275°
2026-04-13 15:23 70.13866 -42.87196 36148 ft 506 kts 275°
2026-04-13 15:24 70.14673 -43.07684 36154 ft 506 kts 274°
2026-04-13 15:24 70.15458 -43.28228 36154 ft 504 kts 274°
2026-04-13 15:25 70.16216 -43.48720 36159 ft 504 kts 274°
2026-04-13 15:25 70.16954 -43.69286 36161 ft 504 kts 274°
2026-04-13 15:26 70.17664 -43.89767 36166 ft 505 kts 274°
2026-04-13 15:26 70.18357 -44.10427 36167 ft 505 kts 273°
2026-04-13 15:27 70.19019 -44.30903 36169 ft 505 kts 273°
2026-04-13 15:27 70.19663 -44.51545 36168 ft 505 kts 273°
2026-04-13 15:28 70.20283 -44.72181 36171 ft 504 kts 273°
2026-04-13 15:28 70.20875 -44.92703 36169 ft 503 kts 272°
2026-04-13 15:29 70.21447 -45.13345 36165 ft 503 kts 272°
2026-04-13 15:29 70.21996 -45.34014 36170 ft 505 kts 272°
2026-04-13 15:30 70.22517 -45.54568 36165 ft 505 kts 272°
2026-04-13 15:30 70.23020 -45.75331 36165 ft 505 kts 271°
2026-04-13 15:31 70.23494 -45.95917 36165 ft 504 kts 271°
2026-04-13 15:31 70.23949 -46.16661 36169 ft 504 kts 271°
2026-04-13 15:32 70.24376 -46.37252 36165 ft 504 kts 271°
2026-04-13 15:32 70.24781 -46.57953 36163 ft 503 kts 270°
2026-04-13 15:33 70.25161 -46.78565 36169 ft 504 kts 270°
2026-04-13 15:33 70.25519 -46.99223 36168 ft 504 kts 270°
2026-04-13 15:34 70.26011 -47.30333 36168 ft 504 kts 270°
2026-04-13 15:34 70.26309 -47.51060 36179 ft 503 kts 270°
2026-04-13 15:35 70.26582 -47.71651 36181 ft 503 kts 269°
2026-04-13 15:35 70.26833 -47.92404 36181 ft 503 kts 269°
2026-04-13 15:36 70.27059 -48.13019 36195 ft 504 kts 269°
2026-04-13 15:36 70.27262 -48.33749 36197 ft 503 kts 269°
2026-04-13 15:37 70.27441 -48.54514 36198 ft 503 kts 268°
2026-04-13 15:37 70.27596 -48.75084 36204 ft 503 kts 268°
2026-04-13 15:38 70.27727 -48.95806 36204 ft 502 kts 268°
2026-04-13 15:38 70.27835 -49.16452 36215 ft 502 kts 268°
2026-04-13 15:39 70.27919 -49.37096 36210 ft 502 kts 268°
2026-04-13 15:39 70.27979 -49.57812 36209 ft 503 kts 267°
2026-04-13 15:40 70.28016 -49.78595 36208 ft 503 kts 267°
2026-04-13 15:40 70.28028 -49.99250 36207 ft 503 kts 267°
2026-04-13 15:41 70.28017 -50.20052 36194 ft 503 kts 267°
2026-04-13 15:41 70.27983 -50.40660 36192 ft 503 kts 266°
2026-04-13 15:42 70.27924 -50.61412 36189 ft 503 kts 266°
2026-04-13 15:42 70.27842 -50.82071 36191 ft 504 kts 266°
2026-04-13 15:43 70.27736 -51.02730 36180 ft 503 kts 266°
2026-04-13 15:43 70.27605 -51.23494 36182 ft 503 kts 265°
2026-04-13 15:44 70.27451 -51.44264 36179 ft 503 kts 265°
2026-04-13 15:44 70.27275 -51.64851 36186 ft 502 kts 265°
2026-04-13 15:45 70.27073 -51.85556 36183 ft 501 kts 265°
2026-04-13 15:45 70.26851 -52.06046 36176 ft 501 kts 265°
2026-04-13 15:46 70.26603 -52.26689 36183 ft 502 kts 264°
2026-04-13 15:46 70.26331 -52.47361 36175 ft 502 kts 264°
2026-04-13 15:47 70.26037 -52.67931 36182 ft 502 kts 264°
2026-04-13 15:47 70.25772 -52.85145 36180 ft 502 kts 264°
2026-04-13 15:48 70.25433 -53.05819 36174 ft 502 kts 264°
2026-04-13 15:48 70.25074 -53.26285 36173 ft 499 kts 264°
2026-04-13 15:49 70.24689 -53.46836 36179 ft 500 kts 263°
2026-04-13 15:49 70.24282 -53.67380 36187 ft 500 kts 263°
2026-04-13 15:50 70.23853 -53.87780 36185 ft 500 kts 263°
2026-04-13 15:50 70.23398 -54.08354 36186 ft 500 kts 263°
2026-04-13 15:51 70.22923 -54.28746 36179 ft 499 kts 263°
2026-04-13 15:51 70.22421 -54.49264 36178 ft 500 kts 262°
2026-04-13 15:52 70.21900 -54.69632 36190 ft 500 kts 262°
2026-04-13 15:52 70.21354 -54.90059 36174 ft 498 kts 262°
2026-04-13 15:53 70.20783 -55.10500 36174 ft 498 kts 262°
2026-04-13 15:53 70.20195 -55.30796 36174 ft 498 kts 262°
2026-04-13 15:54 70.19578 -55.51219 36180 ft 498 kts 262°
2026-04-13 15:54 70.18942 -55.71512 36179 ft 498 kts 261°
2026-04-13 15:55 70.18284 -55.91766 36178 ft 498 kts 261°
2026-04-13 15:55 70.17600 -56.12085 36181 ft 498 kts 261°
2026-04-13 15:56 70.16894 -56.32396 36217 ft 498 kts 261°
2026-04-13 15:56 70.16165 -56.52691 36183 ft 497 kts 261°
2026-04-13 15:57 70.15417 -56.72822 36179 ft 498 kts 261°
2026-04-13 15:57 70.14643 -56.93084 36189 ft 498 kts 260°
2026-04-13 15:58 70.13843 -57.13382 36189 ft 498 kts 260°
2026-04-13 15:58 70.13025 -57.33529 36188 ft 497 kts 260°
2026-04-13 15:59 70.12183 -57.53719 36173 ft 496 kts 260°
2026-04-13 15:59 70.11321 -57.73809 36183 ft 498 kts 259°
2026-04-13 16:00 70.10430 -57.94034 36201 ft 498 kts 259°
2026-04-13 16:00 70.09525 -58.14057 36186 ft 496 kts 259°
2026-04-13 16:01 70.08593 -58.34155 36185 ft 496 kts 259°
2026-04-13 16:01 70.07638 -58.54239 36182 ft 496 kts 259°
2026-04-13 16:02 70.06669 -58.74144 36183 ft 496 kts 259°
2026-04-13 16:02 70.05668 -58.94207 36186 ft 496 kts 258°
2026-04-13 16:03 70.04646 -59.14240 36183 ft 497 kts 258°
2026-04-13 16:03 70.03608 -59.34115 36188 ft 497 kts 258°
2026-04-13 16:04 70.02541 -59.54109 36185 ft 497 kts 258°
2026-04-13 16:04 70.01455 -59.74025 36184 ft 494 kts 258°
2026-04-13 16:05 70.00349 -59.93855 36183 ft 494 kts 258°
2026-04-13 16:05 69.99775 -60.13901 36191 ft 497 kts 265°
2026-04-13 16:06 69.99454 -60.33931 36191 ft 496 kts 264°
2026-04-13 16:06 69.99084 -60.54096 36184 ft 497 kts 264°
2026-04-13 16:07 69.98707 -60.74234 36194 ft 497 kts 264°
2026-04-13 16:07 69.98298 -60.94391 36199 ft 498 kts 264°
2026-04-13 16:08 69.97870 -61.14592 36201 ft 497 kts 264°
2026-04-13 16:08 69.97418 -61.34710 36200 ft 496 kts 263°
2026-04-13 16:09 69.96944 -61.54795 36194 ft 494 kts 263°
2026-04-13 16:09 69.96455 -61.74649 36199 ft 494 kts 263°
2026-04-13 16:10 69.95937 -61.94670 36201 ft 494 kts 263°
2026-04-13 16:10 69.95398 -62.14662 36204 ft 494 kts 263°
2026-04-13 16:11 69.94840 -62.34524 36200 ft 494 kts 263°
2026-04-13 16:11 69.94256 -62.54486 36202 ft 493 kts 263°
2026-04-13 16:12 69.93652 -62.74371 36204 ft 493 kts 262°
2026-04-13 16:12 69.93028 -62.94192 36200 ft 494 kts 262°
2026-04-13 16:13 69.92377 -63.14133 36197 ft 493 kts 262°
2026-04-13 16:13 69.90844 -63.33483 36202 ft 489 kts 250°
2026-04-13 16:14 69.88726 -63.52077 36208 ft 486 kts 250°
2026-04-13 16:14 69.86604 -63.70779 36205 ft 487 kts 250°
2026-04-13 16:15 69.84446 -63.89446 36210 ft 486 kts 249°
2026-04-13 16:15 69.82286 -64.07981 36212 ft 487 kts 249°
2026-04-13 16:16 69.80104 -64.26481 36211 ft 488 kts 249°
2026-04-13 16:16 69.77894 -64.45023 36213 ft 487 kts 249°
2026-04-13 16:17 69.75664 -64.63531 36209 ft 486 kts 249°
2026-04-13 16:17 69.73429 -64.81877 36217 ft 483 kts 249°
2026-04-13 16:18 69.71189 -65.00069 36215 ft 484 kts 249°
2026-04-13 16:18 69.68916 -65.18341 36218 ft 484 kts 248°
2026-04-13 16:19 69.66623 -65.36585 36217 ft 483 kts 248°
2026-04-13 16:19 69.64324 -65.54687 36216 ft 484 kts 248°
2026-04-13 16:20 69.61990 -65.72875 36220 ft 484 kts 248°
2026-04-13 16:20 69.59653 -65.90900 36226 ft 484 kts 248°
2026-04-13 16:21 69.57286 -66.08974 36229 ft 484 kts 248°
2026-04-13 16:21 69.54909 -66.26942 36231 ft 484 kts 247°
2026-04-13 16:22 69.52515 -66.44864 36232 ft 484 kts 247°
2026-04-13 16:23 69.48880 -66.71739 36234 ft 484 kts 247°
2026-04-13 16:23 69.46427 -66.89650 36233 ft 484 kts 247°
2026-04-13 16:24 69.43971 -67.07414 36231 ft 485 kts 246°
2026-04-13 16:24 69.41483 -67.25238 36231 ft 484 kts 246°
2026-04-13 16:25 69.38994 -67.42899 36230 ft 481 kts 246°
2026-04-13 16:25 69.36479 -67.60568 36237 ft 482 kts 246°
2026-04-13 16:26 69.33963 -67.78085 36233 ft 481 kts 246°
2026-04-13 16:26 69.31417 -67.95644 36228 ft 482 kts 246°
2026-04-13 16:27 69.28865 -68.13081 36226 ft 482 kts 245°
2026-04-13 16:27 69.26280 -68.30584 36221 ft 482 kts 245°
2026-04-13 16:28 69.23689 -68.47962 36212 ft 482 kts 245°
2026-04-13 16:28 69.21075 -68.65347 36209 ft 480 kts 245°
2026-04-13 16:29 69.18463 -68.82550 36201 ft 481 kts 245°
2026-04-13 16:29 69.15815 -68.99843 36193 ft 480 kts 245°
2026-04-13 16:30 69.13167 -69.16978 36186 ft 480 kts 245°
2026-04-13 16:30 69.10485 -69.34181 36186 ft 480 kts 244°
2026-04-13 16:31 69.07803 -69.51230 36179 ft 481 kts 244°
2026-04-13 16:31 69.05079 -69.68400 36142 ft 480 kts 244°
2026-04-13 16:32 69.02361 -69.85380 36144 ft 480 kts 244°
2026-04-13 16:32 68.99661 -70.02106 36132 ft 469 kts 244°
2026-04-13 16:33 68.97065 -70.18865 36107 ft 470 kts 245°
2026-04-13 16:33 68.94443 -70.35539 36107 ft 470 kts 244°
2026-04-13 16:34 68.92233 -70.49417 36095 ft 470 kts 244°
2026-04-13 16:34 68.89586 -70.66074 36093 ft 470 kts 244°
2026-04-13 16:35 68.86904 -70.82677 36091 ft 470 kts 244°
2026-04-13 16:35 68.84214 -70.99250 36096 ft 478 kts 244°
2026-04-13 16:36 68.81454 -71.16077 36084 ft 478 kts 243°
2026-04-13 16:36 68.78725 -71.32610 36082 ft 472 kts 243°
2026-04-13 16:37 68.75964 -71.49163 36080 ft 473 kts 243°
2026-04-13 16:37 68.73207 -71.65585 36069 ft 473 kts 243°
2026-04-13 16:38 68.70417 -71.82048 36067 ft 473 kts 243°
2026-04-13 16:38 68.67614 -71.98466 36061 ft 473 kts 243°
2026-04-13 16:39 68.64813 -72.14731 36065 ft 475 kts 242°
2026-04-13 16:39 68.61971 -72.31108 36046 ft 477 kts 242°
2026-04-13 16:40 68.59126 -72.47362 36041 ft 473 kts 242°
2026-04-13 16:40 68.56268 -72.63556 36025 ft 472 kts 242°
2026-04-13 16:41 68.53399 -72.79693 36023 ft 472 kts 241°
2026-04-13 16:41 68.50534 -72.95686 36016 ft 471 kts 241°
2026-04-13 16:42 68.47630 -73.11754 36008 ft 471 kts 242°
2026-04-13 16:42 68.44736 -73.27657 36012 ft 470 kts 241°
2026-04-13 16:43 68.41794 -73.43682 36005 ft 474 kts 241°
2026-04-13 16:43 68.38844 -73.59646 36003 ft 475 kts 241°
2026-04-13 16:44 68.35864 -73.75635 35998 ft 474 kts 241°
2026-04-13 16:44 68.32869 -73.91578 35985 ft 474 kts 241°
2026-04-13 16:45 68.29877 -74.07391 35984 ft 474 kts 241°
2026-04-13 16:45 68.26861 -74.23209 35984 ft 474 kts 240°
2026-04-13 16:46 68.23826 -74.39003 35974 ft 474 kts 240°
2026-04-13 16:46 68.20769 -74.54792 35979 ft 475 kts 240°
2026-04-13 16:47 68.17691 -74.70568 35955 ft 475 kts 239°
2026-04-13 16:47 68.14613 -74.86226 35948 ft 474 kts 240°
2026-04-13 16:48 68.11524 -75.01828 35937 ft 472 kts 240°
2026-04-13 16:48 68.08437 -75.17300 35937 ft 473 kts 239°
2026-04-13 16:49 68.05332 -75.32751 35923 ft 473 kts 239°
2026-04-13 16:49 68.02200 -75.48221 35923 ft 473 kts 239°
2026-04-13 16:50 67.99049 -75.63671 35926 ft 473 kts 239°
2026-04-13 16:50 67.95891 -75.79044 35906 ft 476 kts 239°
2026-04-13 16:51 67.92696 -75.94484 35903 ft 476 kts 238°
2026-04-13 16:51 67.89503 -76.09806 35896 ft 471 kts 238°
2026-04-13 16:52 67.86322 -76.24948 35879 ft 472 kts 238°
2026-04-13 16:52 67.83104 -76.40174 35870 ft 472 kts 238°
2026-04-13 16:53 67.79876 -76.55334 35869 ft 472 kts 238°
2026-04-13 16:53 67.76648 -76.70383 35855 ft 473 kts 238°
2026-04-13 16:54 67.73389 -76.85474 35841 ft 474 kts 238°
2026-04-13 16:54 67.70110 -77.00546 35840 ft 474 kts 237°
2026-04-13 16:55 67.66828 -77.15531 35825 ft 471 kts 237°
2026-04-13 16:55 67.63542 -77.30433 35818 ft 471 kts 237°
2026-04-13 16:56 67.60226 -77.45354 35815 ft 471 kts 237°
2026-04-13 16:56 67.56905 -77.60209 35818 ft 473 kts 237°
2026-04-13 16:57 67.53577 -77.74979 35826 ft 473 kts 237°
2026-04-13 16:57 67.50224 -77.89774 35823 ft 472 kts 236°
2026-04-13 16:58 67.46869 -78.04465 35802 ft 475 kts 236°
2026-04-13 16:58 67.43468 -78.19270 35799 ft 475 kts 236°
2026-04-13 16:59 67.40044 -78.34057 35801 ft 474 kts 236°
2026-04-13 16:59 67.36639 -78.48673 35781 ft 476 kts 236°
2026-04-13 17:00 67.33196 -78.63355 35778 ft 476 kts 236°
2026-04-13 17:00 67.29763 -78.77884 35780 ft 475 kts 236°
2026-04-13 17:01 67.26300 -78.92453 35755 ft 475 kts 235°
2026-04-13 17:01 67.22819 -79.06992 35755 ft 478 kts 236°
2026-04-13 17:02 67.19300 -79.21604 35756 ft 479 kts 235°
2026-04-13 17:02 67.15782 -79.36104 35724 ft 477 kts 234°
2026-04-13 17:03 67.12243 -79.50594 35729 ft 477 kts 235°
2026-04-13 17:03 67.08717 -79.64944 35718 ft 477 kts 235°
2026-04-13 17:04 67.05152 -79.79345 35699 ft 478 kts 235°
2026-04-13 17:04 67.01577 -79.93704 35698 ft 478 kts 235°
2026-04-13 17:05 66.97845 -80.07750 35697 ft 477 kts 232°
2026-04-13 17:05 66.94028 -80.21521 35682 ft 476 kts 232°
2026-04-13 17:06 66.90176 -80.35256 35681 ft 475 kts 232°
2026-04-13 17:06 66.86342 -80.48875 35664 ft 475 kts 232°
2026-04-13 17:07 66.82478 -80.62504 35662 ft 474 kts 232°
2026-04-13 17:07 66.78607 -80.76074 35661 ft 474 kts 232°
2026-04-13 17:08 66.74743 -80.89541 35642 ft 474 kts 231°
2026-04-13 17:08 66.70846 -81.03032 35641 ft 474 kts 231°
2026-04-13 17:09 66.66955 -81.16429 35651 ft 476 kts 231°
2026-04-13 17:09 66.63015 -81.29904 35623 ft 474 kts 231°
2026-04-13 17:10 66.59096 -81.43228 35626 ft 474 kts 231°
2026-04-13 17:10 66.55179 -81.56475 35629 ft 473 kts 231°
2026-04-13 17:11 66.51239 -81.69714 35608 ft 473 kts 231°
2026-04-13 17:11 66.47300 -81.82868 35610 ft 475 kts 230°
2026-04-13 17:12 66.43328 -81.96056 35602 ft 473 kts 230°
2026-04-13 17:12 66.39354 -82.09175 35586 ft 472 kts 230°
2026-04-13 17:13 66.35358 -82.22276 35579 ft 475 kts 230°
2026-04-13 17:13 66.31372 -82.35282 35563 ft 476 kts 230°
2026-04-13 17:14 66.27336 -82.48357 35560 ft 474 kts 231°
2026-04-13 17:14 66.23309 -82.61344 35559 ft 475 kts 231°
2026-04-13 17:15 66.19278 -82.74257 35545 ft 476 kts 230°
2026-04-13 17:15 66.15245 -82.87107 35546 ft 474 kts 230°
2026-04-13 17:16 66.11167 -83.00014 35541 ft 474 kts 230°
2026-04-13 17:16 66.07102 -83.12820 35524 ft 476 kts 230°
2026-04-13 17:17 66.03026 -83.25573 35525 ft 476 kts 230°
2026-04-13 17:17 65.98912 -83.38379 35525 ft 476 kts 230°
2026-04-13 17:18 65.94784 -83.51151 35512 ft 478 kts 230°
2026-04-13 17:18 65.90658 -83.63846 35512 ft 477 kts 230°
2026-04-13 17:19 65.86505 -83.76541 35488 ft 476 kts 230°
2026-04-13 17:19 65.82376 -83.89105 35492 ft 477 kts 230°
2026-04-13 17:20 65.78201 -84.01725 35492 ft 478 kts 230°
2026-04-13 17:20 65.74008 -84.14332 35484 ft 483 kts 230°
2026-04-13 17:21 65.70448 -84.24982 35478 ft 484 kts 230°
2026-04-13 17:21 65.66208 -84.37592 35486 ft 485 kts 230°
2026-04-13 17:22 65.61928 -84.50253 35462 ft 484 kts 230°
2026-04-13 17:22 65.57644 -84.62853 35469 ft 485 kts 229°
2026-04-13 17:23 65.53365 -84.75364 35470 ft 484 kts 229°
2026-04-13 17:23 65.49064 -84.87867 35455 ft 484 kts 230°
2026-04-13 17:24 65.44774 -85.00274 35471 ft 486 kts 230°
2026-04-13 17:24 65.40415 -85.12803 35474 ft 487 kts 230°
2026-04-13 17:25 65.36050 -85.25281 35472 ft 488 kts 230°
2026-04-13 17:25 65.31689 -85.37677 35480 ft 488 kts 229°
2026-04-13 17:26 65.27287 -85.50117 35522 ft 489 kts 229°
2026-04-13 17:26 65.25109 -85.56246 35990 ft 488 kts 229°
2026-04-13 17:26 65.22912 -85.62411 36429 ft 488 kts 230°
2026-04-13 17:26 65.20704 -85.68593 36923 ft 487 kts 230°
2026-04-13 17:27 65.16288 -85.80899 37476 ft 490 kts 230°
2026-04-13 17:27 65.11907 -85.93043 37468 ft 481 kts 230°
2026-04-13 17:28 65.07566 -86.05001 37483 ft 480 kts 230°
2026-04-13 17:28 65.03204 -86.16961 37501 ft 479 kts 230°
2026-04-13 17:29 64.98845 -86.28846 37496 ft 479 kts 230°
2026-04-13 17:29 64.94456 -86.40740 37513 ft 480 kts 230°
2026-04-13 17:30 64.90086 -86.52527 37517 ft 478 kts 230°
2026-04-13 17:30 64.85678 -86.64356 37520 ft 481 kts 230°
2026-04-13 17:31 64.81265 -86.76123 37537 ft 478 kts 230°
2026-04-13 17:31 64.76853 -86.87839 37537 ft 481 kts 229°
2026-04-13 17:32 64.72398 -86.99587 37538 ft 482 kts 230°
2026-04-13 17:32 64.67961 -87.11241 37553 ft 482 kts 230°
2026-04-13 17:33 64.63480 -87.22939 37552 ft 483 kts 229°
2026-04-13 17:33 64.59010 -87.34551 37554 ft 482 kts 229°
2026-04-13 17:34 64.52259 -87.51969 37562 ft 481 kts 229°
2026-04-13 17:35 64.47780 -87.63442 37557 ft 483 kts 229°
2026-04-13 17:35 64.43240 -87.75025 37567 ft 484 kts 229°
2026-04-13 17:36 64.38710 -87.86506 37580 ft 485 kts 229°
2026-04-13 17:36 64.34143 -87.98031 37581 ft 485 kts 229°
2026-04-13 17:37 64.29600 -88.09427 37577 ft 486 kts 229°
2026-04-13 17:37 64.25009 -88.20886 37596 ft 486 kts 229°
2026-04-13 17:38 64.20403 -88.32324 37606 ft 486 kts 229°
2026-04-13 17:38 64.15795 -88.43704 37617 ft 487 kts 229°
2026-04-13 17:39 64.11159 -88.55097 37623 ft 491 kts 229°
2026-04-13 17:39 64.06477 -88.66538 37634 ft 491 kts 229°
2026-04-13 17:40 64.01833 -88.77830 37638 ft 487 kts 229°
2026-04-13 17:40 63.97186 -88.89070 37641 ft 487 kts 229°
2026-04-13 17:41 63.92523 -89.00290 37643 ft 486 kts 229°
2026-04-13 17:41 63.87884 -89.11395 37661 ft 487 kts 229°
2026-04-13 17:42 63.83223 -89.22495 37666 ft 487 kts 229°
2026-04-13 17:42 63.78534 -89.33602 37669 ft 487 kts 228°
2026-04-13 17:43 63.73838 -89.44672 37669 ft 487 kts 228°
2026-04-13 17:43 63.69190 -89.55572 37676 ft 484 kts 228°
2026-04-13 17:44 63.64493 -89.66532 37700 ft 485 kts 228°
2026-04-13 17:44 63.59822 -89.77376 37700 ft 485 kts 228°
2026-04-13 17:45 63.55133 -89.88207 37696 ft 485 kts 228°
2026-04-13 17:45 63.50413 -89.99041 37697 ft 485 kts 226°
2026-04-13 17:46 63.45222 -90.08985 37708 ft 490 kts 223°
2026-04-13 17:46 63.40034 -90.18676 37706 ft 486 kts 223°
2026-04-13 17:47 63.34840 -90.28360 37705 ft 486 kts 223°
2026-04-13 17:47 63.29628 -90.38006 37722 ft 486 kts 223°
2026-04-13 17:48 63.24445 -90.47566 37724 ft 486 kts 223°
2026-04-13 17:48 63.19218 -90.57152 37723 ft 486 kts 223°
2026-04-13 17:49 63.14017 -90.66650 37739 ft 486 kts 223°
2026-04-13 17:49 63.08799 -90.76127 37725 ft 483 kts 223°
2026-04-13 17:50 63.03584 -90.85563 37746 ft 488 kts 223°
2026-04-13 17:50 62.98321 -90.95030 37763 ft 488 kts 223°
2026-04-13 17:51 62.93047 -91.04480 37767 ft 488 kts 223°
2026-04-13 17:51 62.87797 -91.13836 37774 ft 488 kts 223°
2026-04-13 17:52 62.82508 -91.23220 37784 ft 489 kts 223°
2026-04-13 17:52 62.77271 -91.32462 37777 ft 484 kts 223°
2026-04-13 17:53 62.72899 -91.40155 37785 ft 485 kts 223°
2026-04-13 17:53 62.66761 -91.50889 37791 ft 485 kts 223°
2026-04-13 17:54 62.61465 -91.60112 37796 ft 486 kts 223°
2026-04-13 17:54 62.56201 -91.69231 37796 ft 487 kts 223°
2026-04-13 17:55 62.50895 -91.78383 37775 ft 486 kts 223°
2026-04-13 17:55 62.45637 -91.87406 37824 ft 483 kts 223°
2026-04-13 17:56 62.40703 -91.95842 37819 ft 484 kts 223°
2026-04-13 17:56 62.36365 -92.03223 37833 ft 483 kts 223°
2026-04-13 17:57 62.31114 -92.12123 37849 ft 483 kts 223°
2026-04-13 17:57 62.25817 -92.21060 37846 ft 486 kts 223°
2026-04-13 17:58 62.20477 -92.30026 37800 ft 487 kts 223°
2026-04-13 17:58 62.15162 -92.38911 37844 ft 485 kts 223°
2026-04-13 17:59 62.09828 -92.47787 37850 ft 485 kts 223°
2026-04-13 17:59 62.04525 -92.56570 37852 ft 486 kts 223°
2026-04-13 18:00 61.99188 -92.65372 37858 ft 486 kts 223°
2026-04-13 18:00 61.93834 -92.74158 37858 ft 485 kts 223°
2026-04-13 18:01 61.88484 -92.82901 37838 ft 484 kts 223°
2026-04-13 18:01 61.83134 -92.91606 37892 ft 487 kts 223°
2026-04-13 18:02 61.77794 -93.00246 37886 ft 485 kts 223°
2026-04-13 18:02 61.72422 -93.08909 37887 ft 485 kts 223°
2026-04-13 18:03 61.67040 -93.17544 37894 ft 485 kts 223°
2026-04-13 18:03 61.61683 -93.26103 37905 ft 485 kts 223°
2026-04-13 18:04 61.56292 -93.34678 37900 ft 485 kts 223°
2026-04-13 18:04 61.50916 -93.43190 37919 ft 486 kts 222°
2026-04-13 18:05 61.45507 -93.51717 37901 ft 486 kts 222°
2026-04-13 18:05 61.40106 -93.60194 37930 ft 489 kts 222°
2026-04-13 18:06 61.34641 -93.68730 37938 ft 489 kts 222°
2026-04-13 18:06 61.29181 -93.77224 37939 ft 489 kts 222°
2026-04-13 18:07 61.23760 -93.85613 37936 ft 485 kts 222°
2026-04-13 18:07 61.18330 -93.93992 37942 ft 486 kts 222°
2026-04-13 18:08 61.12925 -94.02283 37944 ft 486 kts 222°
2026-04-13 18:08 61.07402 -94.10367 37960 ft 489 kts 219°
2026-04-13 18:09 61.01761 -94.18157 37951 ft 491 kts 219°
2026-04-13 18:09 60.97023 -94.24675 37902 ft 491 kts 219°
2026-04-13 18:10 60.91378 -94.32394 37955 ft 486 kts 219°
2026-04-13 18:10 60.85739 -94.40095 37966 ft 487 kts 219°
2026-04-13 18:11 60.80081 -94.47768 37983 ft 486 kts 219°
2026-04-13 18:11 60.74430 -94.55412 37976 ft 487 kts 219°
2026-04-13 18:12 60.68800 -94.62987 37988 ft 488 kts 219°
2026-04-13 18:12 60.63121 -94.70596 37992 ft 484 kts 219°
2026-04-13 18:13 60.57501 -94.78101 37996 ft 485 kts 219°
2026-04-13 18:13 60.51829 -94.85637 37998 ft 486 kts 219°
2026-04-13 18:14 60.46189 -94.93099 38003 ft 486 kts 219°
2026-04-13 18:14 60.40533 -95.00554 38006 ft 486 kts 219°
2026-04-13 18:15 60.34842 -95.08020 38013 ft 484 kts 219°
2026-04-13 18:15 60.29210 -95.15381 38020 ft 484 kts 219°
2026-04-13 18:16 60.23526 -95.22787 38015 ft 485 kts 219°
2026-04-13 18:16 60.17878 -95.30093 38023 ft 485 kts 219°
2026-04-13 18:17 60.12199 -95.37424 38029 ft 486 kts 219°
2026-04-13 18:17 60.06485 -95.44766 38036 ft 487 kts 219°
2026-04-13 18:18 60.00826 -95.52004 38028 ft 483 kts 219°
2026-04-13 18:18 59.95142 -95.59254 38038 ft 484 kts 219°
2026-04-13 18:19 59.89480 -95.66436 38038 ft 484 kts 219°
2026-04-13 18:19 59.83793 -95.73627 38039 ft 483 kts 219°
2026-04-13 18:20 59.78134 -95.80750 38040 ft 483 kts 218°
2026-04-13 18:20 59.72450 -95.87874 38039 ft 481 kts 218°
2026-04-13 18:21 59.66757 -95.94986 38043 ft 482 kts 218°
2026-04-13 18:21 59.61092 -96.02029 38048 ft 482 kts 218°
2026-04-13 18:22 59.55442 -96.09027 38048 ft 482 kts 218°
2026-04-13 18:22 59.49741 -96.16060 38046 ft 482 kts 218°
2026-04-13 18:23 59.44088 -96.23004 38040 ft 480 kts 218°
2026-04-13 18:23 59.38397 -96.29972 38056 ft 481 kts 218°
2026-04-13 18:24 59.32724 -96.36884 38060 ft 482 kts 218°
2026-04-13 18:24 59.27021 -96.43809 38045 ft 482 kts 218°
2026-04-13 18:25 59.21303 -96.50722 38057 ft 483 kts 218°
2026-04-13 18:25 59.15599 -96.57589 38057 ft 483 kts 218°
2026-04-13 18:26 59.09892 -96.64434 38055 ft 480 kts 218°
2026-04-13 18:26 59.04227 -96.71206 38055 ft 480 kts 218°
2026-04-13 18:27 58.98514 -96.78003 38053 ft 480 kts 218°
2026-04-13 18:27 58.92836 -96.84736 38051 ft 480 kts 218°
2026-04-13 18:28 58.87118 -96.91487 38056 ft 480 kts 217°
2026-04-13 18:28 58.81432 -96.98174 38047 ft 479 kts 217°
2026-04-13 18:29 58.75709 -97.04882 38055 ft 480 kts 217°
2026-04-13 18:29 58.70007 -97.11535 38056 ft 480 kts 217°
2026-04-13 18:30 58.64285 -97.18189 38057 ft 480 kts 217°
2026-04-13 18:30 58.58599 -97.24773 38055 ft 480 kts 217°
2026-04-13 18:31 58.52887 -97.31364 38060 ft 480 kts 217°
2026-04-13 18:31 58.47147 -97.37960 38056 ft 480 kts 217°
2026-04-13 18:32 58.41434 -97.44500 38051 ft 480 kts 217°
2026-04-13 18:32 58.35711 -97.51030 38057 ft 484 kts 217°
2026-04-13 18:33 58.29922 -97.57602 38063 ft 483 kts 217°
2026-04-13 18:33 58.24153 -97.64133 38022 ft 482 kts 217°
2026-04-13 18:34 58.15511 -97.73866 38052 ft 482 kts 217°
2026-04-13 18:34 58.09765 -97.80307 38043 ft 482 kts 217°
2026-04-13 18:35 58.03968 -97.86781 38052 ft 482 kts 217°
2026-04-13 18:35 57.98211 -97.93185 38045 ft 482 kts 217°
2026-04-13 18:36 57.92457 -97.99562 38038 ft 482 kts 216°
2026-04-13 18:36 57.86666 -98.05957 38027 ft 482 kts 216°
2026-04-13 18:37 57.80868 -98.12334 38028 ft 482 kts 216°
2026-04-13 18:37 57.75074 -98.18684 38022 ft 482 kts 216°
2026-04-13 18:38 57.69272 -98.25018 38024 ft 483 kts 216°
2026-04-13 18:38 57.63486 -98.31310 38014 ft 481 kts 216°
2026-04-13 18:39 57.57680 -98.37603 38009 ft 482 kts 216°
2026-04-13 18:39 57.51890 -98.43853 37981 ft 482 kts 216°
2026-04-13 18:40 57.46086 -98.50096 38008 ft 483 kts 216°
2026-04-13 18:40 57.40246 -98.56353 37991 ft 483 kts 216°
2026-04-13 18:41 57.34440 -98.62553 38000 ft 482 kts 216°
2026-04-13 18:41 57.28653 -98.68707 37995 ft 480 kts 216°
2026-04-13 18:42 57.22873 -98.74835 37994 ft 481 kts 216°
2026-04-13 18:42 57.17064 -98.80968 37986 ft 481 kts 216°
2026-04-13 18:43 57.11235 -98.87101 37988 ft 481 kts 215°
2026-04-13 18:43 57.05442 -98.93173 37959 ft 481 kts 215°
2026-04-13 18:44 56.99638 -98.99233 37975 ft 480 kts 215°
2026-04-13 18:44 56.93828 -99.05282 37969 ft 480 kts 215°
2026-04-13 18:45 56.88052 -99.11271 37972 ft 480 kts 215°
2026-04-13 18:45 56.82212 -99.17305 37966 ft 480 kts 215°
2026-04-13 18:46 56.76440 -99.23247 37930 ft 479 kts 215°
2026-04-13 18:46 56.70630 -99.29208 37977 ft 479 kts 215°
2026-04-13 18:47 56.64833 -99.35132 37966 ft 479 kts 215°
2026-04-13 18:47 56.59013 -99.41060 37964 ft 478 kts 215°
2026-04-13 18:48 56.53187 -99.46974 37964 ft 479 kts 215°
2026-04-13 18:48 56.47408 -99.52817 37930 ft 479 kts 215°
2026-04-13 18:49 56.41596 -99.58674 37973 ft 478 kts 215°
2026-04-13 18:49 56.35799 -99.64496 37970 ft 477 kts 215°
2026-04-13 18:50 56.29996 -99.70303 37977 ft 477 kts 215°
2026-04-13 18:50 56.24206 -99.76078 37975 ft 477 kts 215°
2026-04-13 18:51 56.18381 -99.81865 37937 ft 478 kts 214°
2026-04-13 18:51 56.12573 -99.87616 37973 ft 477 kts 214°
2026-04-13 18:52 56.06748 -99.93366 37972 ft 478 kts 214°
2026-04-13 18:52 56.00957 -99.99059 37976 ft 478 kts 214°
2026-04-13 18:53 55.95246 -100.05066 37977 ft 476 kts 216°
2026-04-13 18:53 55.89548 -100.11039 37986 ft 476 kts 216°
2026-04-13 18:54 55.83856 -100.17057 37983 ft 473 kts 216°
2026-04-13 18:54 55.78184 -100.22996 37982 ft 474 kts 216°
2026-04-13 18:55 55.72523 -100.28922 37980 ft 474 kts 216°
2026-04-13 18:55 55.66850 -100.34830 37979 ft 474 kts 216°
2026-04-13 18:56 55.61136 -100.40765 37985 ft 474 kts 216°
2026-04-13 18:56 55.55447 -100.46653 38491 ft 475 kts 216°
2026-04-13 18:57 55.52618 -100.49575 38832 ft 475 kts 216°
2026-04-13 18:57 55.49760 -100.52520 39122 ft 476 kts 216°
2026-04-13 18:57 55.46898 -100.55465 39410 ft 476 kts 216°
2026-04-13 18:57 55.44013 -100.58428 39689 ft 477 kts 216°
2026-04-13 18:58 55.41180 -100.61333 39939 ft 478 kts 215°
2026-04-13 18:58 55.38287 -100.64294 39959 ft 478 kts 215°
2026-04-13 18:58 55.32577 -100.70122 39963 ft 474 kts 215°
2026-04-13 18:59 55.26866 -100.75937 39978 ft 474 kts 215°
2026-04-13 18:59 55.21160 -100.81722 39972 ft 475 kts 215°
2026-04-13 19:00 55.15418 -100.87527 39973 ft 475 kts 215°
2026-04-13 19:00 55.09718 -100.93269 39977 ft 474 kts 215°
2026-04-13 19:01 55.04016 -100.98994 39971 ft 474 kts 215°
2026-04-13 19:01 54.98289 -101.04726 39980 ft 473 kts 215°
2026-04-13 19:02 54.92598 -101.10402 39978 ft 473 kts 215°
2026-04-13 19:02 54.86905 -101.16061 39978 ft 473 kts 215°
2026-04-13 19:03 54.82139 -101.20786 39976 ft 474 kts 215°
2026-04-13 19:03 54.75447 -101.27397 39967 ft 475 kts 215°
2026-04-13 19:04 54.69739 -101.33013 39955 ft 472 kts 215°
2026-04-13 19:04 54.64040 -101.38609 39943 ft 472 kts 214°
2026-04-13 19:05 54.59265 -101.43278 39955 ft 472 kts 214°
2026-04-13 19:05 54.53557 -101.48846 39958 ft 472 kts 214°
2026-04-13 19:06 54.47833 -101.54410 39964 ft 473 kts 214°
2026-04-13 19:06 54.42097 -101.59968 39968 ft 471 kts 214°
2026-04-13 19:07 54.36407 -101.65465 39982 ft 470 kts 214°
2026-04-13 19:07 54.30695 -101.70964 39989 ft 470 kts 214°
2026-04-13 19:08 54.24997 -101.76433 39975 ft 470 kts 214°
2026-04-13 19:08 54.19277 -101.81906 40004 ft 472 kts 214°
2026-04-13 19:09 54.13578 -101.87338 39988 ft 469 kts 214°
2026-04-13 19:09 54.07888 -101.92750 39994 ft 469 kts 214°
2026-04-13 19:10 54.02180 -101.98156 39992 ft 469 kts 214°
2026-04-13 19:10 53.96490 -102.03531 39997 ft 469 kts 214°
2026-04-13 19:11 53.90782 -102.08906 39992 ft 469 kts 214°
2026-04-13 19:11 53.85085 -102.14252 39990 ft 466 kts 214°
2026-04-13 19:12 53.79413 -102.19562 39986 ft 468 kts 214°
2026-04-13 19:12 53.73699 -102.24890 39987 ft 468 kts 213°
2026-04-13 19:13 53.67984 -102.30205 39987 ft 468 kts 213°
2026-04-13 19:13 53.62278 -102.35494 39987 ft 468 kts 213°
2026-04-13 19:14 53.56593 -102.40746 39982 ft 466 kts 213°
2026-04-13 19:14 53.50920 -102.45974 39979 ft 466 kts 213°
2026-04-13 19:15 53.45243 -102.51187 39986 ft 466 kts 213°
2026-04-13 19:15 53.39526 -102.56422 39986 ft 467 kts 213°
2026-04-13 19:16 53.33841 -102.61610 39984 ft 468 kts 213°
2026-04-13 19:16 53.28109 -102.66826 39974 ft 467 kts 213°
2026-04-13 19:17 53.22424 -102.71985 39974 ft 467 kts 213°
2026-04-13 19:17 53.16707 -102.77155 39974 ft 466 kts 213°
2026-04-13 19:18 53.11015 -102.82287 39977 ft 466 kts 213°
2026-04-13 19:18 53.05293 -102.87431 39978 ft 467 kts 213°
2026-04-13 19:19 52.99599 -102.92533 39985 ft 467 kts 213°
2026-04-13 19:19 52.93868 -102.97654 39984 ft 467 kts 213°
2026-04-13 19:20 52.88153 -103.02744 39987 ft 467 kts 213°
2026-04-13 19:20 52.82415 -103.07841 39987 ft 467 kts 213°
2026-04-13 19:21 52.76701 -103.12900 39988 ft 467 kts 213°
2026-04-13 19:21 52.70981 -103.17950 39980 ft 468 kts 212°
2026-04-13 19:22 52.65215 -103.23024 39983 ft 468 kts 212°
2026-04-13 19:22 52.59451 -103.28083 39984 ft 469 kts 212°
2026-04-13 19:23 52.53729 -103.33088 39989 ft 469 kts 212°
2026-04-13 19:23 52.47965 -103.38116 39987 ft 467 kts 212°
2026-04-13 19:24 52.42215 -103.43116 39993 ft 467 kts 212°
2026-04-13 19:24 52.36464 -103.48103 39990 ft 466 kts 212°
2026-04-13 19:25 52.30735 -103.53057 39994 ft 469 kts 212°
2026-04-13 19:25 52.24960 -103.58032 39999 ft 468 kts 212°
2026-04-13 19:26 52.19226 -103.62961 39996 ft 466 kts 212°
2026-04-13 19:26 52.13489 -103.67877 39997 ft 467 kts 212°
2026-04-13 19:27 52.07728 -103.72799 40000 ft 467 kts 212°
2026-04-13 19:27 52.01967 -103.77707 39994 ft 467 kts 212°
2026-04-13 19:28 51.96204 -103.82602 39995 ft 467 kts 211°
2026-04-13 19:28 51.90481 -103.87448 40008 ft 466 kts 211°
2026-04-13 19:29 51.84706 -103.92325 40009 ft 467 kts 211°
2026-04-13 19:29 51.78971 -103.97153 40005 ft 467 kts 211°
2026-04-13 19:30 51.73195 -104.02003 40006 ft 468 kts 211°
2026-04-13 19:30 51.67402 -104.06852 39983 ft 467 kts 211°
2026-04-13 19:31 51.61673 -104.11634 39987 ft 465 kts 211°
2026-04-13 19:31 51.55917 -104.16426 39987 ft 466 kts 211°
2026-04-13 19:32 51.50188 -104.21179 39984 ft 466 kts 211°
2026-04-13 19:32 51.44430 -104.25945 39986 ft 466 kts 211°
2026-04-13 19:33 51.38661 -104.30705 39989 ft 463 kts 211°
2026-04-13 19:34 51.30083 -104.37760 39984 ft 463 kts 211°
2026-04-13 19:34 51.24372 -104.42438 39986 ft 463 kts 211°
2026-04-13 19:35 51.18611 -104.47146 39978 ft 464 kts 211°
2026-04-13 19:35 51.12877 -104.51817 39977 ft 463 kts 211°
2026-04-13 19:36 51.07162 -104.56461 39980 ft 463 kts 210°
2026-04-13 19:36 51.01413 -104.61119 39980 ft 463 kts 210°
2026-04-13 19:37 50.95667 -104.65762 39982 ft 463 kts 210°
2026-04-13 19:37 50.89940 -104.70377 39981 ft 464 kts 210°
2026-04-13 19:38 50.84175 -104.75009 39977 ft 464 kts 210°
2026-04-13 19:38 50.78448 -104.79597 39979 ft 464 kts 210°
2026-04-13 19:39 50.72683 -104.84203 39970 ft 463 kts 210°
2026-04-13 19:39 50.66925 -104.88786 39969 ft 463 kts 209°
2026-04-13 19:40 50.61027 -104.92883 39936 ft 465 kts 207°
2026-04-13 19:40 50.55124 -104.96960 39950 ft 465 kts 207°
2026-04-13 19:41 50.49180 -105.01039 39986 ft 465 kts 207°
2026-04-13 19:41 50.43257 -105.05099 39981 ft 466 kts 207°
2026-04-13 19:42 50.34342 -105.11185 39950 ft 466 kts 206°
2026-04-13 19:42 50.28429 -105.15210 39950 ft 465 kts 206°
2026-04-13 19:43 50.22493 -105.19238 39949 ft 465 kts 206°
2026-04-13 19:43 50.16545 -105.23263 39954 ft 466 kts 206°
2026-04-13 19:44 50.10598 -105.27278 39955 ft 466 kts 206°
2026-04-13 19:44 50.04675 -105.31264 39966 ft 466 kts 206°
2026-04-13 19:45 49.98717 -105.35264 39965 ft 466 kts 206°
2026-04-13 19:45 49.92755 -105.39255 40272 ft 467 kts 206°
2026-04-13 19:46 49.89805 -105.41227 40523 ft 467 kts 206°
2026-04-13 19:46 49.86808 -105.43226 40773 ft 468 kts 206°
2026-04-13 19:46 49.83801 -105.45230 40953 ft 469 kts 206°
2026-04-13 19:46 49.80814 -105.47217 40957 ft 465 kts 206°
2026-04-13 19:47 49.74920 -105.51131 40960 ft 463 kts 206°
2026-04-13 19:47 49.68980 -105.55067 40949 ft 464 kts 206°
2026-04-13 19:48 49.63072 -105.58968 40953 ft 464 kts 206°
2026-04-13 19:48 49.57109 -105.62898 40945 ft 463 kts 206°
2026-04-13 19:49 49.51209 -105.66774 40943 ft 463 kts 206°
2026-04-13 19:49 49.45282 -105.70659 40943 ft 463 kts 206°
2026-04-13 19:50 49.39340 -105.74542 40931 ft 463 kts 206°
2026-04-13 19:50 49.33436 -105.78391 40912 ft 464 kts 205°
2026-04-13 19:51 49.27492 -105.82255 40925 ft 462 kts 205°
2026-04-13 19:51 49.21594 -105.86081 40923 ft 462 kts 205°
2026-04-13 19:52 49.15693 -105.89897 40922 ft 462 kts 205°
2026-04-13 19:52 49.09758 -105.93726 40918 ft 462 kts 205°
2026-04-13 19:53 49.03850 -105.97527 40924 ft 462 kts 205°
2026-04-13 19:53 48.98011 -106.01583 40936 ft 460 kts 210°
2026-04-13 19:54 48.92368 -106.06196 40922 ft 462 kts 210°
2026-04-13 19:54 48.86688 -106.10759 40921 ft 462 kts 210°
2026-04-13 19:55 48.81009 -106.15343 40900 ft 460 kts 210°
2026-04-13 19:55 48.75384 -106.19857 40900 ft 460 kts 210°
2026-04-13 19:56 48.69720 -106.24397 40887 ft 459 kts 210°
2026-04-13 19:56 48.64089 -106.28897 40894 ft 460 kts 210°
2026-04-13 19:57 48.58396 -106.33434 40892 ft 462 kts 210°
2026-04-13 19:57 48.52750 -106.37923 40884 ft 461 kts 210°
2026-04-13 19:58 48.47068 -106.42430 40865 ft 461 kts 210°
2026-04-13 19:58 48.42346 -106.46166 40853 ft 461 kts 210°
2026-04-13 19:59 48.36648 -106.50663 40843 ft 461 kts 210°
2026-04-13 19:59 48.30984 -106.55123 40829 ft 461 kts 210°
2026-04-13 20:00 48.25318 -106.59573 40826 ft 461 kts 210°
2026-04-13 20:00 48.19699 -106.64146 40840 ft 460 kts 212°
2026-04-13 20:01 48.14163 -106.68983 40837 ft 461 kts 212°
2026-04-13 20:01 48.08624 -106.73808 40842 ft 460 kts 212°
2026-04-13 20:02 48.03110 -106.78605 40841 ft 457 kts 212°
2026-04-13 20:02 47.97639 -106.83348 40845 ft 457 kts 212°
2026-04-13 20:03 47.92127 -106.88117 40854 ft 457 kts 212°
2026-04-13 20:03 47.86615 -106.92873 40844 ft 457 kts 212°
2026-04-13 20:04 47.81108 -106.97615 40818 ft 456 kts 212°
2026-04-13 20:04 47.75659 -107.02293 40817 ft 456 kts 211°
2026-04-13 20:05 47.70148 -107.07015 40827 ft 458 kts 211°
2026-04-13 20:05 47.64649 -107.11713 40828 ft 458 kts 211°
2026-04-13 20:06 47.59108 -107.16436 40818 ft 458 kts 211°
2026-04-13 20:06 47.53572 -107.21143 40820 ft 458 kts 211°
2026-04-13 20:07 47.48077 -107.25805 40812 ft 457 kts 211°
2026-04-13 20:07 47.42583 -107.30454 40810 ft 457 kts 211°
2026-04-13 20:08 47.37043 -107.35130 40808 ft 458 kts 211°
2026-04-13 20:08 47.31495 -107.39801 40788 ft 458 kts 211°
2026-04-13 20:09 47.25999 -107.44418 40792 ft 457 kts 211°
2026-04-13 20:09 47.20449 -107.49068 40795 ft 457 kts 211°
2026-04-13 20:10 47.14921 -107.53689 40788 ft 458 kts 211°
2026-04-13 20:10 47.09386 -107.58306 40798 ft 459 kts 211°
2026-04-13 20:11 47.03849 -107.62911 40787 ft 458 kts 211°
2026-04-13 20:11 46.98291 -107.67524 40783 ft 457 kts 211°
2026-04-13 20:12 46.92763 -107.72100 40782 ft 457 kts 211°
2026-04-13 20:12 46.87253 -107.76651 40784 ft 457 kts 210°
2026-04-13 20:13 46.81693 -107.81232 40775 ft 459 kts 211°
2026-04-13 20:13 46.76150 -107.85789 40787 ft 460 kts 210°
2026-04-13 20:14 46.70577 -107.90359 40792 ft 459 kts 210°
2026-04-13 20:14 46.65019 -107.94905 40789 ft 459 kts 210°
2026-04-13 20:15 46.59460 -107.99442 40789 ft 458 kts 210°
2026-04-13 20:15 46.53883 -108.03982 40801 ft 458 kts 210°
2026-04-13 20:16 46.48333 -108.08491 40808 ft 460 kts 210°
2026-04-13 20:16 46.42722 -108.13037 40814 ft 460 kts 210°
2026-04-13 20:17 46.37157 -108.17536 40813 ft 460 kts 210°
2026-04-13 20:17 46.31558 -108.22051 40809 ft 458 kts 210°
2026-04-13 20:18 46.26033 -108.26497 40813 ft 456 kts 210°
2026-04-13 20:18 46.20445 -108.30983 40837 ft 460 kts 210°
2026-04-13 20:19 46.14850 -108.35463 40839 ft 459 kts 210°
2026-04-13 20:19 46.09266 -108.39925 40831 ft 458 kts 210°
2026-04-13 20:20 46.03735 -108.44334 40844 ft 456 kts 210°
2026-04-13 20:20 45.98167 -108.48763 40849 ft 457 kts 210°
2026-04-13 20:21 45.92608 -108.53174 40867 ft 460 kts 210°
2026-04-13 20:21 45.86990 -108.57620 40870 ft 460 kts 210°
2026-04-13 20:22 45.81401 -108.62033 40863 ft 457 kts 210°
2026-04-13 20:22 45.75863 -108.66398 40859 ft 457 kts 210°
2026-04-13 20:23 45.70259 -108.70802 40849 ft 457 kts 210°
2026-04-13 20:23 45.64698 -108.75163 40866 ft 460 kts 210°
2026-04-13 20:24 45.59078 -108.79559 40851 ft 457 kts 210°
2026-04-13 20:24 45.53506 -108.83910 40856 ft 456 kts 210°
2026-04-13 20:25 45.47954 -108.88234 40846 ft 456 kts 210°
2026-04-13 20:25 45.42401 -108.92549 40857 ft 456 kts 210°
2026-04-13 20:26 45.36796 -108.96895 40851 ft 459 kts 210°
2026-04-13 20:26 45.31233 -109.01197 40840 ft 454 kts 210°
2026-04-13 20:27 45.25693 -109.05474 40856 ft 455 kts 210°
2026-04-13 20:27 45.20121 -109.09765 40862 ft 455 kts 210°
2026-04-13 20:28 45.14573 -109.14028 40881 ft 456 kts 210°
2026-04-13 20:28 45.08987 -109.18311 40875 ft 456 kts 210°
2026-04-13 20:29 45.03408 -109.22578 40910 ft 455 kts 210°
2026-04-13 20:29 44.97868 -109.26807 40896 ft 455 kts 210°
2026-04-13 20:30 44.92288 -109.31056 40900 ft 454 kts 210°
2026-04-13 20:30 44.86757 -109.35258 40901 ft 453 kts 210°
2026-04-13 20:31 44.81181 -109.39487 40923 ft 455 kts 210°
2026-04-13 20:31 44.75590 -109.43715 40921 ft 456 kts 210°
2026-04-13 20:32 44.70008 -109.47930 40941 ft 455 kts 210°
2026-04-13 20:32 44.64422 -109.52136 40926 ft 454 kts 210°
2026-04-13 20:33 44.58888 -109.56296 40947 ft 453 kts 210°
2026-04-13 20:33 44.53296 -109.60490 40945 ft 456 kts 210°
2026-04-13 20:34 44.47732 -109.64652 40974 ft 455 kts 210°
2026-04-13 20:34 44.42142 -109.68825 40961 ft 453 kts 210°
2026-04-13 20:35 44.36565 -109.72981 40995 ft 454 kts 210°
2026-04-13 20:35 44.31006 -109.77112 40994 ft 454 kts 210°
2026-04-13 20:36 44.25416 -109.81260 41020 ft 456 kts 210°
2026-04-13 20:36 44.19811 -109.85407 41027 ft 453 kts 210°
2026-04-13 20:37 44.14289 -109.89486 41037 ft 449 kts 210°
2026-04-13 20:37 44.08754 -109.93566 41050 ft 451 kts 210°
2026-04-13 20:38 44.03224 -109.97632 41061 ft 452 kts 210°
2026-04-13 20:38 43.97572 -110.01606 41050 ft 454 kts 207°
2026-04-13 20:39 43.91889 -110.05393 41048 ft 452 kts 207°
2026-04-13 20:39 43.86227 -110.09144 41051 ft 453 kts 207°
2026-04-13 20:40 43.80527 -110.12914 41050 ft 453 kts 207°
2026-04-13 20:40 43.74856 -110.16659 41042 ft 453 kts 207°
2026-04-13 20:41 43.69117 -110.20438 41037 ft 456 kts 207°
2026-04-13 20:41 43.63417 -110.24186 41047 ft 456 kts 207°
2026-04-13 20:42 43.57676 -110.27951 41043 ft 456 kts 207°
2026-04-13 20:42 43.51979 -110.31680 41047 ft 452 kts 207°
2026-04-13 20:43 43.46279 -110.35404 41054 ft 455 kts 207°
2026-04-13 20:43 43.40569 -110.39126 41058 ft 455 kts 207°
2026-04-13 20:44 43.34820 -110.42865 41055 ft 455 kts 207°
2026-04-13 20:44 43.29122 -110.46564 41051 ft 454 kts 207°
2026-04-13 20:45 43.23422 -110.50256 41047 ft 454 kts 207°
2026-04-13 20:46 43.14851 -110.55794 41062 ft 456 kts 207°
2026-04-13 20:46 43.09086 -110.59507 41047 ft 455 kts 207°
2026-04-13 20:47 43.03387 -110.63172 41053 ft 454 kts 207°
2026-04-13 20:47 42.97689 -110.66829 41052 ft 454 kts 207°
2026-04-13 20:48 42.91960 -110.70498 41053 ft 454 kts 207°
2026-04-13 20:48 42.86229 -110.74161 41064 ft 454 kts 207°
2026-04-13 20:49 42.80528 -110.77796 41067 ft 455 kts 207°
2026-04-13 20:49 42.74776 -110.81457 41082 ft 455 kts 207°
2026-04-13 20:50 42.65672 -110.87235 41080 ft 454 kts 207°
2026-04-13 20:50 42.54261 -110.94453 41067 ft 453 kts 207°
2026-04-13 20:51 42.42836 -111.01649 41069 ft 451 kts 207°
2026-04-13 20:51 42.31498 -111.08763 41056 ft 451 kts 207°
2026-04-13 20:52 42.20073 -111.15901 41042 ft 449 kts 208°
2026-04-13 20:52 42.08752 -111.22948 41040 ft 450 kts 207°
2026-04-13 20:53 41.97380 -111.29997 41041 ft 448 kts 207°
2026-04-13 20:53 41.86063 -111.36985 41042 ft 448 kts 207°
2026-04-13 20:54 41.74711 -111.43967 41046 ft 448 kts 207°
2026-04-13 20:54 41.63428 -111.50880 41049 ft 448 kts 207°
2026-04-13 20:55 41.52093 -111.57797 41066 ft 448 kts 207°
2026-04-13 20:55 41.42650 -111.63540 41054 ft 448 kts 207°
2026-04-13 20:56 41.31282 -111.70429 41051 ft 447 kts 207°
2026-04-13 20:56 41.20002 -111.77239 41077 ft 447 kts 207°
2026-04-13 20:57 41.08620 -111.84083 41090 ft 447 kts 207°
2026-04-13 20:57 40.97331 -111.90846 41074 ft 447 kts 207°
2026-04-13 20:58 40.85970 -111.97627 41077 ft 447 kts 207°
2026-04-13 20:58 40.78820 -112.01568 41080 ft 448 kts 205°
2026-04-13 20:59 40.73118 -112.04662 41075 ft 448 kts 206°
2026-04-13 20:59 40.67313 -112.07813 41078 ft 447 kts 205°
2026-04-13 21:00 40.61600 -112.10901 41080 ft 447 kts 205°
2026-04-13 21:00 40.55831 -112.14020 41076 ft 448 kts 205°
2026-04-13 21:01 40.50083 -112.17117 41071 ft 448 kts 205°
2026-04-13 21:01 40.44292 -112.20234 41065 ft 449 kts 205°
2026-04-13 21:02 40.38557 -112.23314 41044 ft 447 kts 205°
2026-04-13 21:02 40.32791 -112.26406 41034 ft 447 kts 205°
2026-04-13 21:03 40.27013 -112.29498 41021 ft 447 kts 205°
2026-04-13 21:03 40.21278 -112.32561 41017 ft 447 kts 205°
2026-04-13 21:04 40.15515 -112.35633 41021 ft 447 kts 205°
2026-04-13 21:04 40.09732 -112.38712 41025 ft 448 kts 205°
2026-04-13 21:05 40.03992 -112.41760 41026 ft 448 kts 205°
2026-04-13 21:05 39.98202 -112.44831 41025 ft 448 kts 205°
2026-04-13 21:06 39.92434 -112.47883 41017 ft 449 kts 205°
2026-04-13 21:06 39.86653 -112.50937 41012 ft 449 kts 205°
2026-04-13 21:07 39.80851 -112.53997 41014 ft 449 kts 205°
2026-04-13 21:07 39.75055 -112.57048 41006 ft 449 kts 205°
2026-04-13 21:08 39.69293 -112.60075 41016 ft 447 kts 205°
2026-04-13 21:08 39.63517 -112.63105 41021 ft 447 kts 205°
2026-04-13 21:09 39.57772 -112.66113 41027 ft 447 kts 205°
2026-04-13 21:09 39.52021 -112.69118 41032 ft 446 kts 205°
2026-04-13 21:10 39.46280 -112.72113 41038 ft 445 kts 205°
2026-04-13 21:10 39.40507 -112.75120 41035 ft 446 kts 205°
2026-04-13 21:11 39.34773 -112.78100 40989 ft 446 kts 205°
2026-04-13 21:11 39.28979 -112.81106 40991 ft 448 kts 205°
2026-04-13 21:12 39.23206 -112.84096 40989 ft 447 kts 205°
2026-04-13 21:12 39.17471 -112.87061 40982 ft 446 kts 205°
2026-04-13 21:13 39.11694 -112.90043 40981 ft 446 kts 205°
2026-04-13 21:13 39.05913 -112.93021 40980 ft 447 kts 205°
2026-04-13 21:14 39.00143 -112.95989 40984 ft 447 kts 204°
2026-04-13 21:14 38.94402 -112.98937 40983 ft 447 kts 204°
2026-04-13 21:15 38.88619 -113.01900 40979 ft 447 kts 204°
2026-04-13 21:15 38.82840 -113.04856 40978 ft 446 kts 204°
2026-04-13 21:16 38.77105 -113.07786 40962 ft 446 kts 205°
2026-04-13 21:16 38.71325 -113.10732 40993 ft 446 kts 204°
2026-04-13 21:17 38.65537 -113.13678 41015 ft 448 kts 204°
2026-04-13 21:17 38.59761 -113.16613 41023 ft 449 kts 204°
2026-04-13 21:18 38.53950 -113.19560 41024 ft 448 kts 204°
2026-04-13 21:18 38.48162 -113.22489 41022 ft 447 kts 204°
2026-04-13 21:19 38.42404 -113.25400 41020 ft 446 kts 204°
2026-04-13 21:19 38.36623 -113.28316 41013 ft 446 kts 204°
2026-04-13 21:20 38.30867 -113.31216 41004 ft 446 kts 204°
2026-04-13 21:20 38.25079 -113.34126 40994 ft 446 kts 204°
2026-04-13 21:21 38.19322 -113.37015 40989 ft 446 kts 204°
2026-04-13 21:21 38.13564 -113.39901 40991 ft 447 kts 204°
2026-04-13 21:22 38.07807 -113.42781 40993 ft 446 kts 204°
2026-04-13 21:22 38.01964 -113.45699 40989 ft 448 kts 204°
2026-04-13 21:23 37.96185 -113.48579 40987 ft 447 kts 204°
2026-04-13 21:23 37.90220 -113.50804 41004 ft 454 kts 194°
2026-04-13 21:24 37.84005 -113.52227 41001 ft 452 kts 194°
2026-04-13 21:24 37.77849 -113.53757 40988 ft 452 kts 194°
2026-04-13 21:25 37.71665 -113.55223 40985 ft 451 kts 194°
2026-04-13 21:25 37.65522 -113.56713 40986 ft 452 kts 194°
2026-04-13 21:26 37.59333 -113.58194 40990 ft 453 kts 194°
2026-04-13 21:26 37.53144 -113.59679 40984 ft 451 kts 194°
2026-04-13 21:27 37.47017 -113.61146 40980 ft 451 kts 194°
2026-04-13 21:27 37.40850 -113.62618 40984 ft 451 kts 194°
2026-04-13 21:28 37.34676 -113.64091 40971 ft 450 kts 194°
2026-04-13 21:28 37.28534 -113.65554 40974 ft 451 kts 194°
2026-04-13 21:29 37.22356 -113.67023 40981 ft 451 kts 194°
2026-04-13 21:29 37.16179 -113.68488 40963 ft 451 kts 194°
2026-04-13 21:30 37.10048 -113.69941 40965 ft 450 kts 194°
2026-04-13 21:30 37.03919 -113.71579 40978 ft 446 kts 204°
2026-04-13 21:31 36.98178 -113.74415 40973 ft 445 kts 205°
2026-04-13 21:31 36.92382 -113.77206 40946 ft 445 kts 204°
2026-04-13 21:32 36.86624 -113.79998 40952 ft 444 kts 204°
2026-04-13 21:32 36.80856 -113.82787 40955 ft 446 kts 204°
2026-04-13 21:33 36.75065 -113.85579 40955 ft 446 kts 204°
2026-04-13 21:33 36.69286 -113.88366 40946 ft 446 kts 204°
2026-04-13 21:34 36.60744 -113.92834 40946 ft 444 kts 207°
2026-04-13 21:34 36.55113 -113.95937 40949 ft 445 kts 207°
2026-04-13 21:35 36.49434 -113.99070 40939 ft 445 kts 207°
2026-04-13 21:36 36.40968 -114.03775 40940 ft 443 kts 212°
2026-04-13 21:36 36.35739 -114.07777 40933 ft 441 kts 214°
2026-04-13 21:37 36.30513 -114.11794 40930 ft 442 kts 214°
2026-04-13 21:37 36.25262 -114.15813 40929 ft 442 kts 214°
2026-04-13 21:38 36.20059 -114.19802 40922 ft 443 kts 214°
2026-04-13 21:38 36.14813 -114.23805 40915 ft 442 kts 214°
2026-04-13 21:39 36.09570 -114.27816 40906 ft 442 kts 216°
2026-04-13 21:39 36.07194 -114.30190 40938 ft 438 kts 227°
2026-04-13 21:39 36.05179 -114.32949 40927 ft 438 kts 231°
2026-04-13 21:40 36.01312 -114.38779 40933 ft 438 kts 229°
2026-04-13 21:40 35.97141 -114.44323 40931 ft 440 kts 229°
2026-04-13 21:41 35.93131 -114.49975 40940 ft 440 kts 229°
2026-04-13 21:41 35.89025 -114.55589 40954 ft 440 kts 229°
2026-04-13 21:42 35.84938 -114.61238 40921 ft 439 kts 229°
2026-04-13 21:42 35.80873 -114.66820 40975 ft 439 kts 229°
2026-04-13 21:43 35.76779 -114.72440 40975 ft 440 kts 229°
2026-04-13 21:43 35.72711 -114.78015 41006 ft 440 kts 229°
2026-04-13 21:44 35.68611 -114.83624 41012 ft 439 kts 229°
2026-04-13 21:44 35.64521 -114.89214 41012 ft 440 kts 229°
2026-04-13 21:45 35.60453 -114.94786 41011 ft 439 kts 229°
2026-04-13 21:45 35.56367 -115.00363 41006 ft 439 kts 229°
2026-04-13 21:46 35.52254 -115.05974 41023 ft 441 kts 229°
2026-04-13 21:46 35.48073 -115.11499 41026 ft 442 kts 228°
2026-04-13 21:47 35.44026 -115.16827 41018 ft 439 kts 228°
2026-04-13 21:47 35.39846 -115.22263 41010 ft 437 kts 228°
2026-04-13 21:48 35.35673 -115.27710 41030 ft 437 kts 228°
2026-04-13 21:48 35.31513 -115.33117 41036 ft 438 kts 227°
2026-04-13 21:49 35.27310 -115.38578 41038 ft 441 kts 227°
2026-04-13 21:49 35.23113 -115.44019 41055 ft 441 kts 227°
2026-04-13 21:50 35.18892 -115.49484 41052 ft 441 kts 227°
2026-04-13 21:50 35.15387 -115.54014 41063 ft 440 kts 227°
2026-04-13 21:51 35.11176 -115.59448 41057 ft 437 kts 227°
2026-04-13 21:51 35.06977 -115.64809 41080 ft 439 kts 227°
2026-04-13 21:52 35.02758 -115.70205 41070 ft 441 kts 227°
2026-04-13 21:52 34.98527 -115.75601 41068 ft 439 kts 227°
2026-04-13 21:53 34.94294 -115.80994 41061 ft 439 kts 227°
2026-04-13 21:53 34.90070 -115.86364 41056 ft 438 kts 227°
2026-04-13 21:54 34.85877 -115.91689 41049 ft 437 kts 227°
2026-04-13 21:54 34.81639 -115.97061 41054 ft 440 kts 227°
2026-04-13 21:55 34.77425 -116.02395 41030 ft 437 kts 227°
2026-04-13 21:55 34.73215 -116.07761 41026 ft 433 kts 228°
2026-04-13 21:55 34.71165 -116.10379 41024 ft 422 kts 228°
2026-04-13 21:56 34.69165 -116.12920 40889 ft 418 kts 228°
2026-04-13 21:56 34.67140 -116.15493 40420 ft 419 kts 228°
2026-04-13 21:56 34.65123 -116.18058 39877 ft 420 kts 228°
2026-04-13 21:56 34.63119 -116.20604 39341 ft 420 kts 227°
2026-04-13 21:57 34.61093 -116.23175 38822 ft 421 kts 227°
2026-04-13 21:57 34.59067 -116.25743 38196 ft 420 kts 227°
2026-04-13 21:57 34.57039 -116.28313 37446 ft 422 kts 227°
2026-04-13 21:57 34.54994 -116.30904 36590 ft 427 kts 227°
2026-04-13 21:58 34.52923 -116.33523 35682 ft 432 kts 227°
2026-04-13 21:58 34.50835 -116.36161 34854 ft 435 kts 227°
2026-04-13 21:58 34.48734 -116.38814 34067 ft 436 kts 226°
2026-04-13 21:58 34.46659 -116.41434 33181 ft 436 kts 227°
2026-04-13 21:59 34.44552 -116.44091 32384 ft 434 kts 227°
2026-04-13 21:59 34.42492 -116.46716 31494 ft 423 kts 231°
2026-04-13 21:59 34.40885 -116.49672 31050 ft 418 kts 240°
2026-04-13 21:59 34.39585 -116.52747 30501 ft 407 kts 241°
2026-04-13 22:00 34.38353 -116.55793 30035 ft 394 kts 242°
2026-04-13 22:00 34.37167 -116.58715 29579 ft 377 kts 242°
2026-04-13 22:00 34.36013 -116.61499 28920 ft 364 kts 241°
2026-04-13 22:00 34.34901 -116.64173 28036 ft 354 kts 241°
2026-04-13 22:01 34.33812 -116.66816 27061 ft 346 kts 241°
2026-04-13 22:01 34.32753 -116.69400 26125 ft 339 kts 241°
2026-04-13 22:01 34.31732 -116.71959 25149 ft 335 kts 242°
2026-04-13 22:01 34.30714 -116.74513 24744 ft 343 kts 241°
2026-04-13 22:02 34.29678 -116.77082 24327 ft 343 kts 241°
2026-04-13 22:02 34.28639 -116.79660 23879 ft 338 kts 241°
2026-04-13 22:02 34.27611 -116.82212 23385 ft 336 kts 241°
2026-04-13 22:02 34.26590 -116.84745 22929 ft 333 kts 241°
2026-04-13 22:03 34.25579 -116.87250 22529 ft 331 kts 242°
2026-04-13 22:03 34.24553 -116.89787 22074 ft 338 kts 242°
2026-04-13 22:03 34.23539 -116.92298 21632 ft 335 kts 242°
2026-04-13 22:03 34.22510 -116.94843 21174 ft 334 kts 242°
2026-04-13 22:04 34.21491 -116.97361 20737 ft 334 kts 243°
2026-04-13 22:04 34.20648 -116.99990 20329 ft 335 kts 250°
2026-04-13 22:04 34.19946 -117.02645 19878 ft 335 kts 250°
2026-04-13 22:04 34.19222 -117.05319 19423 ft 334 kts 250°
2026-04-13 22:05 34.18492 -117.07996 18998 ft 334 kts 250°
2026-04-13 22:05 34.17769 -117.10664 18563 ft 334 kts 250°
2026-04-13 22:05 34.17048 -117.13331 18092 ft 333 kts 250°
2026-04-13 22:05 34.16329 -117.15986 17634 ft 330 kts 250°
2026-04-13 22:06 34.15611 -117.18597 17222 ft 329 kts 251°
2026-04-13 22:06 34.14890 -117.21209 17076 ft 325 kts 251°
2026-04-13 22:06 34.14184 -117.23773 17062 ft 314 kts 251°
2026-04-13 22:06 34.13513 -117.26216 17032 ft 300 kts 251°
2026-04-13 22:07 34.12872 -117.28543 16997 ft 290 kts 251°
2026-04-13 22:07 34.12225 -117.30884 16956 ft 293 kts 251°
2026-04-13 22:07 34.11584 -117.33206 16655 ft 294 kts 251°
2026-04-13 22:07 34.10941 -117.35537 16281 ft 291 kts 251°
2026-04-13 22:08 34.10318 -117.37930 15403 ft 307 kts 254°
2026-04-13 22:08 34.09714 -117.40421 14500 ft 306 kts 252°
2026-04-13 22:08 34.09072 -117.42856 13587 ft 301 kts 252°
2026-04-13 22:08 34.08462 -117.45249 12762 ft 294 kts 253°
2026-04-13 22:09 34.07897 -117.47540 12335 ft 278 kts 253°
2026-04-13 22:09 34.07337 -117.49783 12056 ft 282 kts 253°
2026-04-13 22:09 34.06779 -117.52006 12028 ft 275 kts 253°
2026-04-13 22:09 34.06219 -117.54244 12029 ft 276 kts 253°
2026-04-13 22:10 34.05666 -117.56459 11771 ft 274 kts 253°
2026-04-13 22:10 34.05114 -117.58658 11464 ft 273 kts 253°
2026-04-13 22:10 34.04569 -117.60825 11203 ft 265 kts 253°
2026-04-13 22:10 34.04048 -117.62881 10999 ft 253 kts 253°
2026-04-13 22:11 34.03545 -117.64857 10745 ft 241 kts 253°
2026-04-13 22:11 34.03054 -117.66777 10417 ft 236 kts 253°
2026-04-13 22:11 34.02574 -117.68649 10004 ft 230 kts 253°
2026-04-13 22:11 34.02102 -117.70477 9499 ft 228 kts 253°
2026-04-13 22:12 34.01698 -117.72027 9080 ft 225 kts 253°
2026-04-13 22:12 34.01367 -117.73299 8703 ft 224 kts 253°
2026-04-13 22:12 34.00903 -117.75084 8229 ft 222 kts 253°
2026-04-13 22:12 34.00448 -117.76843 7740 ft 222 kts 253°
2026-04-13 22:13 34.00087 -117.78642 7276 ft 220 kts 263°
2026-04-13 22:13 33.99937 -117.80454 7018 ft 216 kts 266°
2026-04-13 22:13 33.99830 -117.82273 7033 ft 214 kts 266°
2026-04-13 22:13 33.99730 -117.84080 7027 ft 216 kts 266°
2026-04-13 22:14 33.99635 -117.85882 7020 ft 223 kts 266°
2026-04-13 22:14 33.99537 -117.87650 7008 ft 213 kts 266°
2026-04-13 22:14 33.99439 -117.89487 6887 ft 220 kts 266°
2026-04-13 22:14 33.99345 -117.91266 6664 ft 218 kts 266°
2026-04-13 22:15 33.99249 -117.93095 6397 ft 218 kts 266°
2026-04-13 22:15 33.99153 -117.94923 6121 ft 219 kts 266°
2026-04-13 22:15 33.99060 -117.96754 5802 ft 217 kts 266°
2026-04-13 22:15 33.99024 -117.98545 5414 ft 211 kts 275°
2026-04-13 22:16 33.99156 -118.00283 5032 ft 205 kts 270°
2026-04-13 22:16 33.99092 -118.02026 4655 ft 209 kts 263°
2026-04-13 22:16 33.98906 -118.03766 4263 ft 210 kts 261°
2026-04-13 22:16 33.98713 -118.05474 4108 ft 208 kts 261°
2026-04-13 22:17 33.98522 -118.07208 3934 ft 207 kts 262°
2026-04-13 22:17 33.98339 -118.08942 3859 ft 214 kts 262°
2026-04-13 22:17 33.98158 -118.10643 3844 ft 200 kts 262°
2026-04-13 22:17 33.97971 -118.12371 3862 ft 213 kts 262°
2026-04-13 22:18 33.97788 -118.14051 3934 ft 198 kts 262°
2026-04-13 22:18 33.97613 -118.15717 3771 ft 201 kts 263°
2026-04-13 22:18 33.97461 -118.17327 3592 ft 188 kts 263°
2026-04-13 22:18 33.97334 -118.18908 3226 ft 189 kts 264°
2026-04-13 22:19 33.97221 -118.20440 3167 ft 179 kts 265°
2026-04-13 22:19 33.97119 -118.21888 2976 ft 173 kts 264°
2026-04-13 22:19 33.97008 -118.23354 2616 ft 176 kts 264°
2026-04-13 22:19 33.96883 -118.24814 2379 ft 170 kts 262°
2026-04-13 22:20 33.96743 -118.26192 2181 ft 163 kts 262°
2026-04-13 22:20 33.96595 -118.27518 2030 ft 159 kts 261°
2026-04-13 22:20 33.96423 -118.28829 1911 ft 163 kts 261°
2026-04-13 22:20 33.96259 -118.30098 1734 ft 145 kts 261°
2026-04-13 22:21 33.96129 -118.31240 1602 ft 136 kts 262°
2026-04-13 22:21 33.95977 -118.32380 1491 ft 138 kts 262°
2026-04-13 22:21 33.95853 -118.33530 1330 ft 142 kts 264°
2026-04-13 22:21 33.95755 -118.34678 1175 ft 138 kts 264°
2026-04-13 22:22 33.95643 -118.35847 952 ft 143 kts 262°
2026-04-13 22:22 33.95525 -118.37031 799 ft 142 kts 262°
2026-04-13 22:22 33.95414 -118.38197 581 ft 139 kts 259°
2026-04-13 22:22 33.95301 -118.39336 328 ft 134 kts 259°
2026-04-13 22:23 33.95187 -118.40422 138 ft 124 kts 262°
2026-04-13 22:23 33.95109 -118.41203 135 ft 58 kts 263°
2026-04-13 22:23 33.95062 -118.41605 130 ft 40 kts 267°
2026-04-13 22:23 33.95000 -118.41835 132 ft 19 kts 233°
2026-04-13 22:24 33.94942 -118.41926 130 ft 7 kts 229°
2026-04-13 22:24 33.94937 -118.41933 134 ft 0 kts 231°
2026-04-13 22:24 33.94935 -118.41936 132 ft 1 kts 231°
2026-04-13 22:24 33.94924 -118.41956 133 ft 5 kts 234°
2026-04-13 22:25 33.94895 -118.42002 133 ft 8 kts 232°
2026-04-13 22:25 33.94847 -118.42073 131 ft 12 kts 232°
2026-04-13 22:25 33.94790 -118.42167 128 ft 17 kts 233°
2026-04-13 22:25 33.94732 -118.42244 128 ft 2 kts 200°
2026-04-13 22:26 33.94720 -118.42241 129 ft 4 kts 170°
2026-04-13 22:26 33.94698 -118.42225 131 ft 4 kts 131°
2026-04-13 22:26 33.94690 -118.42173 126 ft 10 kts 86°
2026-04-13 22:26 33.94702 -118.42056 130 ft 19 kts 83°
2026-04-13 22:27 33.94721 -118.41869 135 ft 27 kts 83°
2026-04-13 22:27 33.94746 -118.41620 135 ft 32 kts 83°
2026-04-13 22:27 33.94769 -118.41432 133 ft 16 kts 75°
2026-04-13 22:27 33.94786 -118.41320 131 ft 10 kts 106°
2026-04-13 22:28 33.94747 -118.41293 129 ft 8 kts 170°
2026-04-13 22:28 33.94671 -118.41281 130 ft 14 kts 174°
2026-04-13 22:28 33.94551 -118.41266 133 ft 20 kts 172°
2026-04-13 22:28 33.94397 -118.41241 133 ft 24 kts 173°
2026-04-13 22:29 33.94236 -118.41219 132 ft 21 kts 174°
2026-04-13 22:29 33.94136 -118.41203 133 ft 10 kts 171°
2026-04-13 22:29 33.94063 -118.41191 133 ft 9 kts 173°
2026-04-13 22:29 33.94015 -118.41176 132 ft 2 kts 140°
2026-04-13 22:30 33.94012 -118.41165 131 ft 1 kts 107°
2026-04-13 22:30 33.94014 -118.41141 127 ft 6 kts 83°
2026-04-13 22:30 33.94020 -118.41086 136 ft 2 kts 84°
2026-04-13 22:30 33.94021 -118.41073 136 ft 1 kts 83°